Wetterdaten: Samstag, 24.01.2026
Datum Zeit Temp. Aussen Temp. o. S. Temp +5cm Feuchte Auss Luftdruck Regen Sonnenschein Regendauer Solar Windböen Empfang
24.01.2026 00:00 4,0 °C 3,3 °C -0,6 °C 73 % 998,5 hPa 0,0 l/m² 0 min 0 min 0 W/m² 16,1 km/h (3 Bft) 100,00 %
24.01.2026 00:02 4,0 °C 3,3 °C -0,6 °C 73 % 998,4 hPa 0,0 l/m² 0 min 0 min 0 W/m² 16,1 km/h (3 Bft) 100,00 %
24.01.2026 00:04 4,0 °C 3,3 °C -0,6 °C 73 % 998,4 hPa 0,0 l/m² 0 min 0 min 0 W/m² 16,1 km/h (3 Bft) 100,00 %
24.01.2026 00:08 4,0 °C 3,3 °C -0,6 °C 73 % 998,5 hPa 0,0 l/m² 0 min 0 min 0 W/m² 22,5 km/h (4 Bft) 100,00 %
24.01.2026 00:10 4,0 °C 3,3 °C -0,6 °C 73 % 998,6 hPa 0,0 l/m² 0 min 0 min 0 W/m² 22,5 km/h (4 Bft) 100,00 %
24.01.2026 00:12 4,0 °C 3,3 °C -0,6 °C 73 % 998,6 hPa 0,0 l/m² 0 min 0 min 0 W/m² 16,1 km/h (3 Bft) 100,00 %
24.01.2026 00:16 4,0 °C 3,3 °C 0,0 °C 73 % 998,6 hPa 0,0 l/m² 0 min 0 min 0 W/m² 16,1 km/h (3 Bft) 97,44 %
24.01.2026 00:18 4,0 °C 3,3 °C 0,0 °C 73 % 998,8 hPa 0,0 l/m² 0 min 0 min 0 W/m² 25,7 km/h (4 Bft) 100,00 %
24.01.2026 00:20 4,0 °C 3,3 °C 0,0 °C 73 % 998,8 hPa 0,0 l/m² 0 min 0 min 0 W/m² 16,1 km/h (3 Bft) 100,00 %
24.01.2026 00:22 4,1 °C 3,3 °C 0,0 °C 73 % 998,8 hPa 0,0 l/m² 0 min 0 min 0 W/m² 16,1 km/h (3 Bft) 100,00 %
24.01.2026 00:24 4,1 °C 3,3 °C 0,0 °C 73 % 998,8 hPa 0,0 l/m² 0 min 0 min 0 W/m² 16,1 km/h (3 Bft) 100,00 %
24.01.2026 00:26 4,1 °C 3,3 °C 0,0 °C 73 % 998,9 hPa 0,0 l/m² 0 min 0 min 0 W/m² 19,3 km/h (3 Bft) 98,25 %
24.01.2026 00:28 4,1 °C 3,3 °C 0,0 °C 73 % 999,0 hPa 0,0 l/m² 0 min 0 min 0 W/m² 16,1 km/h (3 Bft) 97,22 %
24.01.2026 00:30 4,1 °C 3,3 °C 0,0 °C 73 % 999,0 hPa 0,0 l/m² 0 min 0 min 0 W/m² 19,3 km/h (3 Bft) 100,00 %
24.01.2026 00:32 4,1 °C 3,3 °C 0,0 °C 73 % 999,0 hPa 0,0 l/m² 0 min 0 min 0 W/m² 19,3 km/h (3 Bft) 97,30 %
24.01.2026 00:34 4,1 °C 3,3 °C 0,0 °C 73 % 998,9 hPa 0,0 l/m² 0 min 0 min 0 W/m² 22,5 km/h (4 Bft) 94,55 %
24.01.2026 00:36 4,1 °C 3,3 °C 0,0 °C 73 % 998,9 hPa 0,0 l/m² 0 min 0 min 0 W/m² 16,1 km/h (3 Bft) 100,00 %
24.01.2026 00:38 4,1 °C 3,3 °C 0,0 °C 73 % 998,9 hPa 0,0 l/m² 0 min 0 min 0 W/m² 19,3 km/h (3 Bft) 96,30 %
24.01.2026 00:40 4,1 °C 3,3 °C 0,0 °C 73 % 998,8 hPa 0,0 l/m² 0 min 0 min 0 W/m² 12,9 km/h (3 Bft) 98,08 %
24.01.2026 00:42 4,1 °C 3,3 °C 0,0 °C 73 % 998,9 hPa 0,0 l/m² 0 min 0 min 0 W/m² 22,5 km/h (4 Bft) 94,74 %
24.01.2026 00:44 4,1 °C 3,3 °C 0,0 °C 73 % 998,9 hPa 0,0 l/m² 0 min 0 min 0 W/m² 19,3 km/h (3 Bft) 96,30 %
24.01.2026 00:46 4,1 °C 3,3 °C 0,0 °C 73 % 999,0 hPa 0,0 l/m² 0 min 0 min 0 W/m² 22,5 km/h (4 Bft) 95,00 %
24.01.2026 00:48 4,1 °C 3,3 °C 0,0 °C 73 % 999,1 hPa 0,0 l/m² 0 min 0 min 0 W/m² 16,1 km/h (3 Bft) 93,88 %
24.01.2026 00:50 4,1 °C 3,3 °C 0,0 °C 73 % 999,1 hPa 0,0 l/m² 0 min 0 min 0 W/m² 16,1 km/h (3 Bft) 93,02 %
24.01.2026 00:52 4,1 °C 3,3 °C 0,0 °C 73 % 999,1 hPa 0,0 l/m² 0 min 0 min 0 W/m² 12,9 km/h (3 Bft) 92,16 %
24.01.2026 00:54 4,1 °C 3,3 °C 0,0 °C 73 % 999,1 hPa 0,0 l/m² 0 min 0 min 0 W/m² 16,1 km/h (3 Bft) 92,86 %
24.01.2026 00:56 4,1 °C 3,3 °C 0,0 °C 73 % 999,1 hPa 0,0 l/m² 0 min 0 min 0 W/m² 22,5 km/h (4 Bft) 94,23 %
24.01.2026 00:58 4,1 °C 3,3 °C 0,0 °C 73 % 999,1 hPa 0,0 l/m² 0 min 0 min 0 W/m² 19,3 km/h (3 Bft) 91,84 %
24.01.2026 01:00 4,1 °C 3,3 °C 0,0 °C 73 % 999,1 hPa 0,0 l/m² 0 min 0 min 0 W/m² 22,5 km/h (4 Bft) 95,24 %
24.01.2026 01:02 4,1 °C 3,3 °C 0,0 °C 73 % 999,1 hPa 0,0 l/m² 0 min 0 min 0 W/m² 19,3 km/h (3 Bft) 92,31 %
24.01.2026 01:04 4,1 °C 3,3 °C 0,0 °C 73 % 999,1 hPa 0,0 l/m² 0 min 0 min 0 W/m² 16,1 km/h (3 Bft) 97,62 %
24.01.2026 01:06 4,1 °C 3,3 °C 0,0 °C 73 % 999,1 hPa 0,0 l/m² 0 min 0 min 0 W/m² 19,3 km/h (3 Bft) 94,34 %
24.01.2026 01:08 4,1 °C 3,3 °C 0,0 °C 73 % 999,1 hPa 0,0 l/m² 0 min 0 min 0 W/m² 16,1 km/h (3 Bft) 94,74 %
24.01.2026 01:10 4,1 °C 3,3 °C 0,0 °C 73 % 999,2 hPa 0,0 l/m² 0 min 0 min 0 W/m² 25,7 km/h (4 Bft) 94,55 %
24.01.2026 01:12 4,1 °C 3,3 °C 0,0 °C 73 % 999,2 hPa 0,0 l/m² 0 min 0 min 0 W/m² 19,3 km/h (3 Bft) 92,11 %
24.01.2026 01:14 4,1 °C 3,3 °C 0,0 °C 73 % 999,2 hPa 0,0 l/m² 0 min 0 min 0 W/m² 19,3 km/h (3 Bft) 98,15 %
24.01.2026 01:16 4,1 °C 3,3 °C 0,0 °C 73 % 999,2 hPa 0,0 l/m² 0 min 0 min 0 W/m² 16,1 km/h (3 Bft) 96,08 %
24.01.2026 01:18 4,1 °C 3,3 °C 0,0 °C 73 % 999,2 hPa 0,0 l/m² 0 min 0 min 0 W/m² 16,1 km/h (3 Bft) 94,44 %
24.01.2026 01:20 4,1 °C 3,3 °C 0,0 °C 73 % 999,3 hPa 0,0 l/m² 0 min 0 min 0 W/m² 16,1 km/h (3 Bft) 98,18 %
24.01.2026 01:22 4,1 °C 3,3 °C 0,0 °C 73 % 999,3 hPa 0,0 l/m² 0 min 0 min 0 W/m² 19,3 km/h (3 Bft) 94,87 %
24.01.2026 01:24 4,1 °C 3,3 °C 0,0 °C 73 % 999,3 hPa 0,0 l/m² 0 min 0 min 0 W/m² 19,3 km/h (3 Bft) 98,11 %
24.01.2026 01:26 4,1 °C 3,3 °C 0,0 °C 73 % 999,3 hPa 0,0 l/m² 0 min 0 min 0 W/m² 19,3 km/h (3 Bft) 92,50 %
24.01.2026 01:28 4,1 °C 3,3 °C 0,0 °C 73 % 999,3 hPa 0,0 l/m² 0 min 0 min 0 W/m² 19,3 km/h (3 Bft) 96,00 %
24.01.2026 01:30 4,1 °C 3,3 °C -0,6 °C 73 % 999,3 hPa 0,0 l/m² 0 min 0 min 0 W/m² 22,5 km/h (4 Bft) 98,18 %
24.01.2026 01:32 4,1 °C 3,3 °C -0,6 °C 73 % 999,3 hPa 0,0 l/m² 0 min 0 min 0 W/m² 19,3 km/h (3 Bft) 94,87 %
24.01.2026 01:34 4,1 °C 3,3 °C -0,6 °C 73 % 999,4 hPa 0,0 l/m² 0 min 0 min 0 W/m² 16,1 km/h (3 Bft) 96,23 %
24.01.2026 01:36 4,1 °C 3,3 °C -0,6 °C 73 % 999,5 hPa 0,0 l/m² 0 min 0 min 0 W/m² 25,7 km/h (4 Bft) 100,00 %
24.01.2026 01:38 4,1 °C 3,3 °C -0,6 °C 73 % 999,5 hPa 0,0 l/m² 0 min 0 min 0 W/m² 19,3 km/h (3 Bft) 100,00 %
24.01.2026 01:40 4,1 °C 3,3 °C -0,6 °C 73 % 999,6 hPa 0,0 l/m² 0 min 0 min 0 W/m² 16,1 km/h (3 Bft) 95,24 %
24.01.2026 01:42 4,1 °C 3,3 °C -0,6 °C 73 % 999,5 hPa 0,0 l/m² 0 min 0 min 0 W/m² 19,3 km/h (3 Bft) 100,00 %
24.01.2026 01:44 4,1 °C 3,3 °C -0,6 °C 73 % 999,6 hPa 0,0 l/m² 0 min 0 min 0 W/m² 16,1 km/h (3 Bft) 100,00 %
24.01.2026 01:46 4,1 °C 3,3 °C -0,6 °C 73 % 999,5 hPa 0,0 l/m² 0 min 0 min 0 W/m² 22,5 km/h (4 Bft) 100,00 %
24.01.2026 01:48 4,1 °C 3,3 °C -0,6 °C 73 % 999,5 hPa 0,0 l/m² 0 min 0 min 0 W/m² 19,3 km/h (3 Bft) 100,00 %
24.01.2026 01:50 4,1 °C 3,3 °C 0,0 °C 73 % 999,5 hPa 0,0 l/m² 0 min 0 min 0 W/m² 19,3 km/h (3 Bft) 100,00 %
24.01.2026 01:52 4,1 °C 3,3 °C 0,0 °C 73 % 999,5 hPa 0,0 l/m² 0 min 0 min 0 W/m² 22,5 km/h (4 Bft) 100,00 %
24.01.2026 01:54 4,1 °C 3,3 °C 0,0 °C 73 % 999,5 hPa 0,0 l/m² 0 min 0 min 0 W/m² 22,5 km/h (4 Bft) 100,00 %
24.01.2026 01:56 4,1 °C 3,3 °C 0,0 °C 73 % 999,5 hPa 0,0 l/m² 0 min 0 min 0 W/m² 16,1 km/h (3 Bft) 100,00 %
24.01.2026 01:58 4,1 °C 3,3 °C 0,0 °C 73 % 999,5 hPa 0,0 l/m² 0 min 0 min 0 W/m² 19,3 km/h (3 Bft) 98,25 %
24.01.2026 02:00 4,1 °C 3,3 °C 0,0 °C 73 % 999,5 hPa 0,0 l/m² 0 min 0 min 0 W/m² 25,7 km/h (4 Bft) 100,00 %
24.01.2026 02:02 4,1 °C 3,3 °C 0,0 °C 73 % 999,5 hPa 0,0 l/m² 0 min 0 min 0 W/m² 22,5 km/h (4 Bft) 100,00 %
24.01.2026 02:04 4,1 °C 3,3 °C 0,0 °C 73 % 999,5 hPa 0,0 l/m² 0 min 0 min 0 W/m² 19,3 km/h (3 Bft) 100,00 %
24.01.2026 02:06 4,1 °C 3,3 °C -0,6 °C 73 % 999,5 hPa 0,0 l/m² 0 min 0 min 0 W/m² 16,1 km/h (3 Bft) 100,00 %
24.01.2026 02:08 4,1 °C 3,3 °C 0,0 °C 73 % 999,6 hPa 0,0 l/m² 0 min 0 min 0 W/m² 16,1 km/h (3 Bft) 100,00 %
24.01.2026 02:10 4,1 °C 3,3 °C -0,6 °C 73 % 999,5 hPa 0,0 l/m² 0 min 0 min 0 W/m² 19,3 km/h (3 Bft) 100,00 %
24.01.2026 02:14 4,1 °C 3,3 °C -0,6 °C 73 % 999,6 hPa 0,0 l/m² 0 min 0 min 0 W/m² 16,1 km/h (3 Bft) 100,00 %
24.01.2026 02:16 4,1 °C 3,3 °C -0,6 °C 73 % 999,6 hPa 0,0 l/m² 0 min 0 min 0 W/m² 16,1 km/h (3 Bft) 100,00 %
24.01.2026 02:18 4,1 °C 3,3 °C -0,6 °C 73 % 999,7 hPa 0,0 l/m² 0 min 0 min 0 W/m² 12,9 km/h (3 Bft) 100,00 %
24.01.2026 02:20 4,1 °C 3,3 °C 0,0 °C 73 % 999,8 hPa 0,0 l/m² 0 min 0 min 0 W/m² 16,1 km/h (3 Bft) 100,00 %
24.01.2026 02:22 4,1 °C 3,3 °C 0,0 °C 73 % 999,8 hPa 0,0 l/m² 0 min 0 min 0 W/m² 12,9 km/h (3 Bft) 100,00 %
24.01.2026 02:24 4,1 °C 3,3 °C 0,0 °C 73 % 999,8 hPa 0,0 l/m² 0 min 0 min 0 W/m² 16,1 km/h (3 Bft) 97,78 %
24.01.2026 02:26 4,1 °C 3,3 °C -0,6 °C 74 % 999,8 hPa 0,0 l/m² 0 min 0 min 0 W/m² 16,1 km/h (3 Bft) 95,92 %
24.01.2026 02:28 4,1 °C 3,3 °C -0,6 °C 74 % 999,8 hPa 0,0 l/m² 0 min 0 min 0 W/m² 12,9 km/h (3 Bft) 97,87 %
24.01.2026 02:30 4,1 °C 3,3 °C -0,6 °C 74 % 999,8 hPa 0,0 l/m² 0 min 0 min 0 W/m² 16,1 km/h (3 Bft) 97,78 %
24.01.2026 02:32 4,1 °C 3,3 °C -0,6 °C 74 % 999,8 hPa 0,0 l/m² 0 min 0 min 0 W/m² 16,1 km/h (3 Bft) 97,83 %
24.01.2026 02:34 4,1 °C 3,3 °C -0,6 °C 74 % 999,8 hPa 0,0 l/m² 0 min 0 min 0 W/m² 12,9 km/h (3 Bft) 95,65 %
24.01.2026 02:36 4,1 °C 3,3 °C 0,0 °C 74 % 999,8 hPa 0,0 l/m² 0 min 0 min 0 W/m² 22,5 km/h (4 Bft) 98,21 %
24.01.2026 02:38 4,1 °C 3,3 °C 0,0 °C 73 % 999,8 hPa 0,0 l/m² 0 min 0 min 0 W/m² 22,5 km/h (4 Bft) 43,59 %
24.01.2026 02:40 4,1 °C 3,3 °C -0,6 °C 74 % 999,8 hPa 0,0 l/m² 0 min 0 min 0 W/m² 12,9 km/h (3 Bft) 97,83 %
24.01.2026 02:42 4,1 °C 3,3 °C -0,6 °C 74 % 999,8 hPa 0,0 l/m² 0 min 0 min 0 W/m² 16,1 km/h (3 Bft) 95,65 %
24.01.2026 02:44 4,1 °C 3,3 °C -0,6 °C 74 % 999,8 hPa 0,0 l/m² 0 min 0 min 0 W/m² 16,1 km/h (3 Bft) 98,00 %
24.01.2026 02:46 4,1 °C 3,3 °C -0,6 °C 74 % 999,8 hPa 0,0 l/m² 0 min 0 min 0 W/m² 16,1 km/h (3 Bft) 95,74 %
24.01.2026 02:48 4,1 °C 3,3 °C -0,6 °C 74 % 999,8 hPa 0,0 l/m² 0 min 0 min 0 W/m² 22,5 km/h (4 Bft) 97,67 %
24.01.2026 02:50 4,1 °C 3,3 °C -0,6 °C 74 % 999,8 hPa 0,0 l/m² 0 min 0 min 0 W/m² 16,1 km/h (3 Bft) 94,87 %
24.01.2026 02:52 4,1 °C 3,3 °C -0,6 °C 74 % 999,9 hPa 0,0 l/m² 0 min 0 min 0 W/m² 16,1 km/h (3 Bft) 94,92 %
24.01.2026 02:54 4,1 °C 3,3 °C -0,6 °C 74 % 1000,0 hPa 0,0 l/m² 0 min 0 min 0 W/m² 19,3 km/h (3 Bft) 97,73 %
24.01.2026 02:56 4,1 °C 3,3 °C -0,6 °C 75 % 999,9 hPa 0,0 l/m² 0 min 0 min 0 W/m² 25,7 km/h (4 Bft) 97,37 %
24.01.2026 02:58 4,1 °C 3,3 °C -0,6 °C 75 % 1000,0 hPa 0,0 l/m² 0 min 0 min 0 W/m² 16,1 km/h (3 Bft) 100,00 %
24.01.2026 03:00 4,1 °C 3,3 °C -0,6 °C 75 % 1000,0 hPa 0,0 l/m² 0 min 0 min 0 W/m² 12,9 km/h (3 Bft) 100,00 %
24.01.2026 03:02 4,1 °C 3,3 °C -0,6 °C 75 % 1000,1 hPa 0,0 l/m² 0 min 0 min 0 W/m² 19,3 km/h (3 Bft) 93,18 %
24.01.2026 03:04 4,1 °C 3,3 °C -0,6 °C 75 % 1000,1 hPa 0,0 l/m² 0 min 0 min 0 W/m² 22,5 km/h (4 Bft) 100,00 %
24.01.2026 03:06 4,1 °C 3,3 °C -0,6 °C 76 % 1000,2 hPa 0,0 l/m² 0 min 2 min 0 W/m² 16,1 km/h (3 Bft) 100,00 %
24.01.2026 03:08 4,1 °C 3,3 °C -1,1 °C 76 % 1000,2 hPa 0,0 l/m² 0 min 2 min 0 W/m² 12,9 km/h (3 Bft) 97,87 %
24.01.2026 03:10 4,0 °C 3,3 °C -1,1 °C 77 % 1000,1 hPa 0,0 l/m² 0 min 2 min 0 W/m² 19,3 km/h (3 Bft) 97,73 %
24.01.2026 03:12 4,0 °C 2,8 °C -1,7 °C 77 % 1000,2 hPa 0,0 l/m² 0 min 2 min 0 W/m² 16,1 km/h (3 Bft) 98,04 %
24.01.2026 03:14 4,0 °C 2,8 °C -1,7 °C 78 % 1000,2 hPa 0,0 l/m² 0 min 0 min 0 W/m² 16,1 km/h (3 Bft) 97,83 %
24.01.2026 03:16 3,9 °C 2,8 °C -1,7 °C 78 % 1000,1 hPa 0,0 l/m² 0 min 0 min 0 W/m² 16,1 km/h (3 Bft) 93,02 %
24.01.2026 03:18 3,9 °C 2,8 °C -1,7 °C 79 % 1000,2 hPa 0,0 l/m² 0 min 0 min 0 W/m² 16,1 km/h (3 Bft) 97,50 %
24.01.2026 03:20 3,9 °C 2,8 °C -1,7 °C 79 % 1000,2 hPa 0,0 l/m² 0 min 0 min 0 W/m² 12,9 km/h (3 Bft) 94,83 %
24.01.2026 03:22 3,8 °C 2,8 °C -1,7 °C 79 % 1000,2 hPa 0,0 l/m² 0 min 0 min 0 W/m² 12,9 km/h (3 Bft) 97,56 %
24.01.2026 03:24 3,8 °C 2,8 °C -1,7 °C 80 % 1000,2 hPa 0,0 l/m² 0 min 0 min 0 W/m² 16,1 km/h (3 Bft) 98,11 %
24.01.2026 03:26 3,8 °C 2,8 °C -1,7 °C 80 % 1000,2 hPa 0,0 l/m² 0 min 0 min 0 W/m² 16,1 km/h (3 Bft) 95,45 %
24.01.2026 03:28 3,7 °C 2,8 °C -1,7 °C 80 % 1000,3 hPa 0,0 l/m² 0 min 0 min 0 W/m² 16,1 km/h (3 Bft) 97,37 %
24.01.2026 03:30 3,7 °C 2,8 °C -1,7 °C 81 % 1000,3 hPa 0,0 l/m² 0 min 0 min 0 W/m² 19,3 km/h (3 Bft) 96,55 %
24.01.2026 03:32 3,6 °C 2,8 °C -1,7 °C 81 % 1000,3 hPa 0,0 l/m² 0 min 0 min 0 W/m² 16,1 km/h (3 Bft) 97,83 %
24.01.2026 03:34 3,6 °C 2,8 °C -1,7 °C 81 % 1000,3 hPa 0,0 l/m² 0 min 0 min 0 W/m² 16,1 km/h (3 Bft) 97,62 %
24.01.2026 03:36 3,6 °C 2,8 °C -1,7 °C 82 % 1000,3 hPa 0,2 l/m² 0 min 0 min 0 W/m² 19,3 km/h (3 Bft) 66,04 %
24.01.2026 03:38 3,5 °C 2,8 °C -1,7 °C 82 % 1000,2 hPa 0,0 l/m² 0 min 0 min 0 W/m² 19,3 km/h (3 Bft) 91,11 %
24.01.2026 03:40 3,4 °C 2,8 °C -2,2 °C 82 % 1000,3 hPa 0,0 l/m² 0 min 0 min 0 W/m² 22,5 km/h (4 Bft) 95,45 %
24.01.2026 03:42 3,4 °C 2,8 °C -2,2 °C 82 % 1000,2 hPa 0,0 l/m² 0 min 0 min 0 W/m² 16,1 km/h (3 Bft) 97,44 %
24.01.2026 03:44 3,4 °C 2,2 °C -2,2 °C 83 % 1000,2 hPa 0,0 l/m² 0 min 2 min 0 W/m² 16,1 km/h (3 Bft) 98,28 %
24.01.2026 03:46 3,4 °C 2,2 °C -2,2 °C 83 % 1000,2 hPa 0,0 l/m² 0 min 2 min 0 W/m² 12,9 km/h (3 Bft) 100,00 %
24.01.2026 03:48 3,3 °C 2,2 °C -2,2 °C 83 % 1000,1 hPa 0,0 l/m² 0 min 2 min 0 W/m² 16,1 km/h (3 Bft) 100,00 %
24.01.2026 03:50 3,3 °C 2,2 °C -2,2 °C 83 % 1000,2 hPa 0,0 l/m² 0 min 0 min 0 W/m² 12,9 km/h (3 Bft) 96,61 %
24.01.2026 03:52 3,3 °C 2,2 °C -2,2 °C 84 % 1000,2 hPa 0,0 l/m² 0 min 0 min 0 W/m² 16,1 km/h (3 Bft) 97,73 %
24.01.2026 03:54 3,3 °C 2,2 °C -2,2 °C 84 % 1000,2 hPa 0,0 l/m² 0 min 0 min 0 W/m² 12,9 km/h (3 Bft) 97,37 %
24.01.2026 03:56 3,2 °C 2,2 °C -2,2 °C 84 % 1000,2 hPa 0,0 l/m² 0 min 2 min 0 W/m² 12,9 km/h (3 Bft) 98,28 %
24.01.2026 03:58 3,2 °C 2,2 °C -2,2 °C 84 % 1000,2 hPa 0,0 l/m² 0 min 2 min 0 W/m² 16,1 km/h (3 Bft) 97,67 %
24.01.2026 04:00 3,2 °C 2,2 °C -2,2 °C 85 % 1000,2 hPa 0,2 l/m² 0 min 0 min 0 W/m² 16,1 km/h (3 Bft) 92,31 %
24.01.2026 04:02 3,2 °C 2,2 °C -2,2 °C 85 % 1000,2 hPa 0,0 l/m² 0 min 2 min 0 W/m² 16,1 km/h (3 Bft) 94,92 %
24.01.2026 04:04 3,1 °C 2,2 °C -2,2 °C 85 % 1000,2 hPa 0,0 l/m² 0 min 0 min 0 W/m² 19,3 km/h (3 Bft) 97,62 %
24.01.2026 04:06 3,1 °C 2,2 °C -2,2 °C 85 % 1000,1 hPa 0,0 l/m² 0 min 2 min 0 W/m² 12,9 km/h (3 Bft) 96,15 %
24.01.2026 04:08 3,1 °C 2,2 °C -2,2 °C 86 % 1000,1 hPa 0,0 l/m² 0 min 2 min 0 W/m² 19,3 km/h (3 Bft) 97,83 %
24.01.2026 04:10 3,1 °C 2,2 °C -2,2 °C 86 % 1000,1 hPa 0,0 l/m² 0 min 0 min 0 W/m² 16,1 km/h (3 Bft) 97,67 %
24.01.2026 04:12 3,1 °C 2,2 °C -2,2 °C 86 % 1000,2 hPa 0,0 l/m² 0 min 0 min 0 W/m² 6,4 km/h (2 Bft) 96,15 %
24.01.2026 04:14 3,0 °C 2,2 °C -2,2 °C 86 % 1000,2 hPa 0,0 l/m² 0 min 0 min 0 W/m² 12,9 km/h (3 Bft) 95,45 %
24.01.2026 04:16 3,0 °C 2,2 °C -2,2 °C 86 % 1000,2 hPa 0,0 l/m² 0 min 0 min 0 W/m² 16,1 km/h (3 Bft) 94,74 %
24.01.2026 04:18 3,0 °C 2,2 °C -2,2 °C 87 % 1000,2 hPa 0,0 l/m² 0 min 0 min 0 W/m² 16,1 km/h (3 Bft) 94,74 %
24.01.2026 04:20 3,0 °C 2,2 °C -2,2 °C 87 % 1000,2 hPa 0,0 l/m² 0 min 0 min 0 W/m² 12,9 km/h (3 Bft) 93,02 %
24.01.2026 04:22 2,9 °C 2,2 °C -2,2 °C 87 % 1000,2 hPa 0,0 l/m² 0 min 0 min 0 W/m² 16,1 km/h (3 Bft) 92,31 %
24.01.2026 04:24 2,9 °C 2,2 °C -2,2 °C 87 % 1000,3 hPa 0,0 l/m² 0 min 0 min 0 W/m² 12,9 km/h (3 Bft) 93,22 %
24.01.2026 04:26 2,9 °C 2,2 °C -2,2 °C 87 % 1000,2 hPa 0,0 l/m² 0 min 0 min 0 W/m² 12,9 km/h (3 Bft) 95,35 %
24.01.2026 04:28 2,9 °C 2,2 °C -2,2 °C 87 % 1000,3 hPa 0,0 l/m² 0 min 0 min 0 W/m² 12,9 km/h (3 Bft) 94,87 %
24.01.2026 04:30 2,9 °C 2,2 °C -2,2 °C 87 % 1000,2 hPa 0,0 l/m² 0 min 0 min 0 W/m² 16,1 km/h (3 Bft) 92,86 %
24.01.2026 04:32 2,9 °C 2,2 °C -2,2 °C 87 % 1000,2 hPa 0,0 l/m² 0 min 0 min 0 W/m² 16,1 km/h (3 Bft) 95,35 %
24.01.2026 04:34 2,8 °C 2,2 °C -2,2 °C 87 % 1000,3 hPa 0,0 l/m² 0 min 0 min 0 W/m² 16,1 km/h (3 Bft) 96,23 %
24.01.2026 04:36 2,8 °C 2,2 °C -2,2 °C 88 % 1000,2 hPa 0,0 l/m² 0 min 0 min 0 W/m² 16,1 km/h (3 Bft) 93,33 %
24.01.2026 04:38 2,8 °C 2,2 °C -2,2 °C 88 % 1000,2 hPa 0,0 l/m² 0 min 0 min 0 W/m² 12,9 km/h (3 Bft) 97,67 %
24.01.2026 04:40 2,8 °C 2,2 °C -2,2 °C 88 % 1000,2 hPa 0,0 l/m² 0 min 0 min 0 W/m² 6,4 km/h (2 Bft) 92,31 %
24.01.2026 04:42 2,8 °C 2,2 °C -2,2 °C 88 % 1000,2 hPa 0,0 l/m² 0 min 0 min 0 W/m² 12,9 km/h (3 Bft) 97,78 %
24.01.2026 04:44 2,8 °C 2,2 °C -2,2 °C 88 % 1000,2 hPa 0,0 l/m² 0 min 0 min 0 W/m² 12,9 km/h (3 Bft) 100,00 %
24.01.2026 04:46 2,8 °C 2,2 °C -2,2 °C 88 % 1000,1 hPa 0,0 l/m² 0 min 0 min 0 W/m² 12,9 km/h (3 Bft) 100,00 %
24.01.2026 04:48 2,8 °C 2,2 °C -2,2 °C 88 % 1000,2 hPa 0,0 l/m² 0 min 0 min 0 W/m² 12,9 km/h (3 Bft) 97,67 %
24.01.2026 04:50 2,8 °C 2,2 °C -2,2 °C 88 % 1000,2 hPa 0,0 l/m² 0 min 0 min 0 W/m² 6,4 km/h (2 Bft) 100,00 %
24.01.2026 04:52 2,8 °C 2,2 °C -2,2 °C 88 % 1000,2 hPa 0,0 l/m² 0 min 0 min 0 W/m² 9,7 km/h (2 Bft) 98,28 %
24.01.2026 04:54 2,8 °C 2,2 °C -2,2 °C 88 % 1000,2 hPa 0,0 l/m² 0 min 0 min 0 W/m² 6,4 km/h (2 Bft) 100,00 %
24.01.2026 04:56 2,8 °C 2,2 °C -2,2 °C 88 % 1000,3 hPa 0,0 l/m² 0 min 0 min 0 W/m² 12,9 km/h (3 Bft) 100,00 %
24.01.2026 04:58 2,8 °C 2,2 °C -2,2 °C 88 % 1000,4 hPa 0,0 l/m² 0 min 0 min 0 W/m² 16,1 km/h (3 Bft) 98,31 %
24.01.2026 05:00 2,8 °C 2,2 °C -2,2 °C 88 % 1000,3 hPa 0,0 l/m² 0 min 0 min 0 W/m² 16,1 km/h (3 Bft) 100,00 %
24.01.2026 05:02 2,8 °C 2,2 °C -2,2 °C 89 % 1000,3 hPa 0,0 l/m² 0 min 0 min 0 W/m² 12,9 km/h (3 Bft) 98,04 %
24.01.2026 05:04 2,8 °C 2,2 °C -2,2 °C 89 % 1000,3 hPa 0,0 l/m² 0 min 0 min 0 W/m² 16,1 km/h (3 Bft) 97,22 %
24.01.2026 05:06 2,8 °C 2,2 °C -2,2 °C 89 % 1000,4 hPa 0,0 l/m² 0 min 0 min 0 W/m² 12,9 km/h (3 Bft) 98,18 %
24.01.2026 05:08 2,8 °C 2,2 °C -2,2 °C 89 % 1000,4 hPa 0,0 l/m² 0 min 0 min 0 W/m² 19,3 km/h (3 Bft) 100,00 %
24.01.2026 05:10 2,8 °C 2,2 °C -2,2 °C 89 % 1000,4 hPa 0,0 l/m² 0 min 2 min 0 W/m² 22,5 km/h (4 Bft) 94,64 %
24.01.2026 05:12 2,8 °C 2,2 °C -2,2 °C 89 % 1000,3 hPa 0,0 l/m² 0 min 0 min 0 W/m² 16,1 km/h (3 Bft) 100,00 %
24.01.2026 05:14 2,8 °C 2,2 °C -2,2 °C 89 % 1000,3 hPa 0,0 l/m² 0 min 0 min 0 W/m² 19,3 km/h (3 Bft) 97,87 %
24.01.2026 05:16 2,8 °C 2,2 °C -2,2 °C 89 % 1000,3 hPa 0,0 l/m² 0 min 2 min 0 W/m² 16,1 km/h (3 Bft) 98,21 %
24.01.2026 05:18 2,8 °C 2,2 °C -2,2 °C 89 % 1000,3 hPa 0,0 l/m² 0 min 2 min 0 W/m² 19,3 km/h (3 Bft) 97,30 %
24.01.2026 05:20 2,8 °C 2,2 °C -2,2 °C 89 % 1000,4 hPa 0,0 l/m² 0 min 2 min 0 W/m² 12,9 km/h (3 Bft) 98,31 %
24.01.2026 05:22 2,8 °C 2,2 °C -2,2 °C 89 % 1000,4 hPa 0,0 l/m² 0 min 0 min 0 W/m² 16,1 km/h (3 Bft) 97,73 %
24.01.2026 05:24 2,8 °C 2,2 °C -2,2 °C 89 % 1000,4 hPa 0,0 l/m² 0 min 0 min 0 W/m² 9,7 km/h (2 Bft) 95,45 %
24.01.2026 05:26 2,8 °C 2,2 °C -2,2 °C 89 % 1000,4 hPa 0,0 l/m² 0 min 0 min 0 W/m² 16,1 km/h (3 Bft) 97,56 %
24.01.2026 05:28 2,8 °C 2,2 °C -2,2 °C 89 % 1000,5 hPa 0,0 l/m² 0 min 0 min 0 W/m² 16,1 km/h (3 Bft) 96,49 %
24.01.2026 05:30 2,8 °C 2,2 °C -2,2 °C 89 % 1000,5 hPa 0,0 l/m² 0 min 0 min 0 W/m² 12,9 km/h (3 Bft) 97,92 %
24.01.2026 05:32 2,8 °C 2,2 °C -2,2 °C 89 % 1000,4 hPa 0,0 l/m² 0 min 0 min 0 W/m² 12,9 km/h (3 Bft) 93,62 %
24.01.2026 05:34 2,8 °C 2,2 °C -2,2 °C 89 % 1000,5 hPa 0,0 l/m² 0 min 0 min 0 W/m² 9,7 km/h (2 Bft) 100,00 %
24.01.2026 05:36 2,8 °C 2,2 °C -2,2 °C 89 % 1000,5 hPa 0,0 l/m² 0 min 0 min 0 W/m² 12,9 km/h (3 Bft) 96,30 %
24.01.2026 05:38 2,8 °C 2,2 °C -2,2 °C 89 % 1000,5 hPa 0,0 l/m² 0 min 0 min 0 W/m² 6,4 km/h (2 Bft) 98,00 %
24.01.2026 05:42 2,8 °C 2,2 °C -2,2 °C 89 % 1000,5 hPa 0,0 l/m² 0 min 0 min 0 W/m² 16,1 km/h (3 Bft) 97,80 %
24.01.2026 05:46 2,8 °C 2,2 °C -2,2 °C 89 % 1000,6 hPa 0,0 l/m² 0 min 0 min 0 W/m² 19,3 km/h (3 Bft) 97,67 %
24.01.2026 05:48 2,8 °C 2,2 °C -2,2 °C 89 % 1000,6 hPa 0,0 l/m² 0 min 0 min 0 W/m² 12,9 km/h (3 Bft) 96,23 %
24.01.2026 05:49 2,7 °C 2,2 °C -2,2 °C 89 % 1000,5 hPa 0,0 l/m² 0 min 0 min 0 W/m² 12,9 km/h (3 Bft) 97,14 %
24.01.2026 05:50 2,7 °C 2,2 °C -2,2 °C 89 % 1000,5 hPa 0,0 l/m² 0 min 0 min 0 W/m² 19,3 km/h (3 Bft) 99,12 %
24.01.2026 05:54 2,7 °C 2,2 °C -1,7 °C 90 % 1000,6 hPa 0,0 l/m² 0 min 0 min 0 W/m² 9,7 km/h (2 Bft) 97,87 %
24.01.2026 05:56 2,7 °C 2,2 °C -1,7 °C 90 % 1000,6 hPa 0,0 l/m² 0 min 0 min 0 W/m² 12,9 km/h (3 Bft) 100,00 %
24.01.2026 06:00 2,7 °C 2,2 °C -1,7 °C 90 % 1000,5 hPa 0,0 l/m² 0 min 0 min 0 W/m² 16,1 km/h (3 Bft) 97,89 %
24.01.2026 06:04 2,7 °C 2,2 °C -1,7 °C 90 % 1000,6 hPa 0,0 l/m² 0 min 0 min 0 W/m² 16,1 km/h (3 Bft) 95,83 %
24.01.2026 06:07 2,6 °C 2,2 °C -1,7 °C 90 % 1000,6 hPa 0,0 l/m² 0 min 0 min 0 W/m² 12,9 km/h (3 Bft) 95,83 %
24.01.2026 06:08 2,6 °C 2,2 °C -1,7 °C 90 % 1000,6 hPa 0,0 l/m² 0 min 0 min 0 W/m² 16,1 km/h (3 Bft) 95,83 %
24.01.2026 06:10 2,6 °C 2,2 °C -1,7 °C 90 % 1000,6 hPa 0,0 l/m² 0 min 0 min 0 W/m² 16,1 km/h (3 Bft) 98,47 %
24.01.2026 06:14 2,6 °C 2,2 °C -1,7 °C 90 % 1000,5 hPa 0,0 l/m² 0 min 0 min 0 W/m² 9,7 km/h (2 Bft) 95,70 %
24.01.2026 06:16 2,6 °C 2,2 °C -1,7 °C 90 % 1000,5 hPa 0,0 l/m² 0 min 0 min 0 W/m² 9,7 km/h (2 Bft) 98,25 %
24.01.2026 06:17 2,6 °C 2,2 °C -1,7 °C 90 % 1000,5 hPa 0,0 l/m² 0 min 0 min 0 W/m² 6,4 km/h (2 Bft) 96,45 %
24.01.2026 06:22 2,6 °C 2,2 °C -1,7 °C 90 % 1000,5 hPa 0,0 l/m² 0 min 0 min 0 W/m² 12,9 km/h (3 Bft) 97,87 %
24.01.2026 06:26 2,6 °C 2,2 °C -1,7 °C 90 % 1000,6 hPa 0,0 l/m² 0 min 0 min 0 W/m² 16,1 km/h (3 Bft) 97,87 %
24.01.2026 06:30 2,6 °C 2,2 °C -1,7 °C 90 % 1000,6 hPa 0,0 l/m² 0 min 0 min 0 W/m² 9,7 km/h (2 Bft) 96,77 %
24.01.2026 06:32 2,6 °C 2,2 °C -1,7 °C 90 % 1000,6 hPa 0,0 l/m² 0 min 0 min 0 W/m² 16,1 km/h (3 Bft) 100,00 %
24.01.2026 06:34 2,6 °C 1,7 °C -1,7 °C 90 % 1000,5 hPa 0,0 l/m² 0 min 0 min 0 W/m² 9,7 km/h (2 Bft) 100,00 %
24.01.2026 06:36 2,6 °C 1,7 °C -1,7 °C 90 % 1000,5 hPa 0,0 l/m² 0 min 0 min 0 W/m² 16,1 km/h (3 Bft) 100,00 %
24.01.2026 06:38 2,6 °C 1,7 °C -1,7 °C 90 % 1000,5 hPa 0,0 l/m² 0 min 0 min 0 W/m² 6,4 km/h (2 Bft) 100,00 %
24.01.2026 06:40 2,6 °C 1,7 °C -1,7 °C 91 % 1000,5 hPa 0,0 l/m² 0 min 0 min 0 W/m² 9,7 km/h (2 Bft) 100,00 %
24.01.2026 06:42 2,6 °C 1,7 °C -1,7 °C 91 % 1000,6 hPa 0,0 l/m² 0 min 0 min 0 W/m² 12,9 km/h (3 Bft) 100,00 %
24.01.2026 06:44 2,5 °C 1,7 °C -1,7 °C 91 % 1000,6 hPa 0,0 l/m² 0 min 0 min 0 W/m² 12,9 km/h (3 Bft) 100,00 %
24.01.2026 06:46 2,5 °C 1,7 °C -1,7 °C 91 % 1000,7 hPa 0,0 l/m² 0 min 0 min 0 W/m² 16,1 km/h (3 Bft) 100,00 %
24.01.2026 06:48 2,5 °C 1,7 °C -1,7 °C 91 % 1000,7 hPa 0,0 l/m² 0 min 0 min 0 W/m² 9,7 km/h (2 Bft) 100,00 %
24.01.2026 06:50 2,5 °C 1,7 °C -1,7 °C 91 % 1000,7 hPa 0,0 l/m² 0 min 0 min 0 W/m² 12,9 km/h (3 Bft) 100,00 %
24.01.2026 06:52 2,5 °C 1,7 °C -1,7 °C 91 % 1000,7 hPa 0,0 l/m² 0 min 0 min 0 W/m² 12,9 km/h (3 Bft) 100,00 %
24.01.2026 06:54 2,5 °C 1,7 °C -1,7 °C 91 % 1000,7 hPa 0,0 l/m² 0 min 0 min 0 W/m² 16,1 km/h (3 Bft) 97,92 %
24.01.2026 06:56 2,4 °C 1,7 °C -1,7 °C 91 % 1000,8 hPa 0,0 l/m² 0 min 0 min 0 W/m² 16,1 km/h (3 Bft) 100,00 %
24.01.2026 06:58 2,4 °C 1,7 °C -1,7 °C 91 % 1000,8 hPa 0,0 l/m² 0 min 0 min 0 W/m² 12,9 km/h (3 Bft) 100,00 %
24.01.2026 07:00 2,4 °C 1,7 °C -1,7 °C 91 % 1000,8 hPa 0,0 l/m² 0 min 0 min 0 W/m² 12,9 km/h (3 Bft) 100,00 %
24.01.2026 07:02 2,4 °C 1,7 °C -1,7 °C 91 % 1000,7 hPa 0,0 l/m² 0 min 0 min 0 W/m² 12,9 km/h (3 Bft) 97,44 %
24.01.2026 07:04 2,4 °C 1,7 °C -1,7 °C 91 % 1000,7 hPa 0,0 l/m² 0 min 0 min 0 W/m² 12,9 km/h (3 Bft) 100,00 %
24.01.2026 07:08 2,4 °C 1,7 °C -1,7 °C 91 % 1000,8 hPa 0,0 l/m² 0 min 0 min 0 W/m² 22,5 km/h (4 Bft) 100,00 %
24.01.2026 07:10 2,4 °C 1,7 °C -1,7 °C 91 % 1000,8 hPa 0,0 l/m² 0 min 0 min 0 W/m² 12,9 km/h (3 Bft) 98,18 %
24.01.2026 07:12 2,4 °C 1,7 °C -1,7 °C 91 % 1000,7 hPa 0,0 l/m² 0 min 0 min 0 W/m² 12,9 km/h (3 Bft) 100,00 %
24.01.2026 07:14 2,4 °C 1,7 °C -1,7 °C 91 % 1000,7 hPa 0,0 l/m² 0 min 0 min 0 W/m² 16,1 km/h (3 Bft) 97,92 %
24.01.2026 07:16 2,4 °C 1,7 °C -1,7 °C 91 % 1000,8 hPa 0,0 l/m² 0 min 0 min 0 W/m² 12,9 km/h (3 Bft) 95,83 %
24.01.2026 07:18 2,4 °C 1,7 °C -1,7 °C 91 % 1000,8 hPa 0,0 l/m² 0 min 0 min 0 W/m² 6,4 km/h (2 Bft) 96,30 %
24.01.2026 07:20 2,4 °C 1,7 °C -1,7 °C 91 % 1000,9 hPa 0,0 l/m² 0 min 0 min 0 W/m² 16,1 km/h (3 Bft) 97,30 %
24.01.2026 07:22 2,4 °C 1,7 °C -1,7 °C 91 % 1000,9 hPa 0,0 l/m² 0 min 0 min 0 W/m² 19,3 km/h (3 Bft) 92,00 %
24.01.2026 07:24 2,4 °C 1,7 °C -1,7 °C 91 % 1000,9 hPa 0,0 l/m² 0 min 0 min 0 W/m² 12,9 km/h (3 Bft) 93,62 %
24.01.2026 07:26 2,4 °C 1,7 °C -1,7 °C 91 % 1000,9 hPa 0,0 l/m² 0 min 0 min 0 W/m² 12,9 km/h (3 Bft) 96,23 %
24.01.2026 07:28 2,4 °C 1,7 °C -1,7 °C 91 % 1000,9 hPa 0,0 l/m² 0 min 0 min 0 W/m² 16,1 km/h (3 Bft) 95,92 %
24.01.2026 07:30 2,4 °C 1,7 °C -1,7 °C 91 % 1000,9 hPa 0,0 l/m² 0 min 0 min 0 W/m² 16,1 km/h (3 Bft) 94,74 %
24.01.2026 07:32 2,4 °C 1,7 °C -1,7 °C 91 % 1000,9 hPa 0,0 l/m² 0 min 0 min 0 W/m² 16,1 km/h (3 Bft) 95,74 %
24.01.2026 07:34 2,4 °C 1,7 °C -1,7 °C 91 % 1000,8 hPa 0,0 l/m² 0 min 0 min 0 W/m² 12,9 km/h (3 Bft) 94,55 %
24.01.2026 07:36 2,4 °C 1,7 °C -1,7 °C 91 % 1000,9 hPa 0,0 l/m² 0 min 0 min 0 W/m² 12,9 km/h (3 Bft) 94,59 %
24.01.2026 07:38 2,4 °C 1,7 °C -1,7 °C 91 % 1000,9 hPa 0,0 l/m² 0 min 0 min 0 W/m² 12,9 km/h (3 Bft) 95,83 %
24.01.2026 07:40 2,4 °C 1,7 °C -1,7 °C 91 % 1000,9 hPa 0,0 l/m² 0 min 0 min 0 W/m² 12,9 km/h (3 Bft) 95,74 %
24.01.2026 07:42 2,4 °C 1,7 °C -1,7 °C 91 % 1000,9 hPa 0,0 l/m² 0 min 0 min 0 W/m² 19,3 km/h (3 Bft) 94,44 %
24.01.2026 07:44 2,4 °C 1,7 °C -1,7 °C 91 % 1000,9 hPa 0,0 l/m² 0 min 0 min 0 W/m² 12,9 km/h (3 Bft) 93,88 %
24.01.2026 07:46 2,4 °C 1,7 °C -1,7 °C 91 % 1000,9 hPa 0,0 l/m² 0 min 0 min 0 W/m² 12,9 km/h (3 Bft) 89,19 %
24.01.2026 07:48 2,4 °C 1,7 °C -1,7 °C 91 % 1000,8 hPa 0,0 l/m² 0 min 0 min 0 W/m² 9,7 km/h (2 Bft) 93,62 %
24.01.2026 07:50 2,4 °C 1,7 °C -1,7 °C 91 % 1000,9 hPa 0,0 l/m² 0 min 0 min 0 W/m² 12,9 km/h (3 Bft) 93,62 %
24.01.2026 07:52 2,4 °C 2,2 °C -1,7 °C 91 % 1000,9 hPa 0,0 l/m² 0 min 0 min 0 W/m² 12,9 km/h (3 Bft) 92,86 %
24.01.2026 07:54 2,4 °C 2,2 °C -1,7 °C 92 % 1000,9 hPa 0,0 l/m² 0 min 0 min 0 W/m² 19,3 km/h (3 Bft) 91,89 %
24.01.2026 07:56 2,4 °C 2,2 °C -1,7 °C 92 % 1000,9 hPa 0,0 l/m² 0 min 0 min 0 W/m² 16,1 km/h (3 Bft) 93,75 %
24.01.2026 07:58 2,4 °C 2,2 °C -1,7 °C 92 % 1000,9 hPa 0,0 l/m² 0 min 0 min 0 W/m² 12,9 km/h (3 Bft) 96,30 %
24.01.2026 08:00 2,4 °C 2,2 °C -1,7 °C 92 % 1000,9 hPa 0,0 l/m² 0 min 0 min 0 W/m² 12,9 km/h (3 Bft) 92,50 %
24.01.2026 08:02 2,5 °C 2,2 °C -1,7 °C 92 % 1000,9 hPa 0,0 l/m² 0 min 0 min 0 W/m² 12,9 km/h (3 Bft) 95,65 %
24.01.2026 08:04 2,5 °C 2,2 °C -1,7 °C 92 % 1000,8 hPa 0,0 l/m² 0 min 0 min 0 W/m² 12,9 km/h (3 Bft) 95,56 %
24.01.2026 08:08 2,5 °C 2,2 °C -1,7 °C 92 % 1001,0 hPa 0,0 l/m² 0 min 0 min 0 W/m² 22,5 km/h (4 Bft) 96,91 %
24.01.2026 08:10 2,5 °C 2,2 °C -1,7 °C 92 % 1001,2 hPa 0,0 l/m² 0 min 0 min 0 W/m² 9,7 km/h (2 Bft) 97,78 %
24.01.2026 08:12 2,6 °C 2,2 °C -1,7 °C 92 % 1001,3 hPa 0,0 l/m² 0 min 0 min 0 W/m² 6,4 km/h (2 Bft) 97,92 %
24.01.2026 08:14 2,6 °C 2,2 °C -1,7 °C 92 % 1001,5 hPa 0,0 l/m² 0 min 0 min 0 W/m² 6,4 km/h (2 Bft) 97,87 %
24.01.2026 08:16 2,6 °C 2,2 °C -1,7 °C 92 % 1001,5 hPa 0,0 l/m² 0 min 0 min 0 W/m² 3,2 km/h (1 Bft) 97,87 %
24.01.2026 08:18 2,6 °C 2,2 °C -1,7 °C 92 % 1001,5 hPa 0,0 l/m² 0 min 0 min 0 W/m² 6,4 km/h (2 Bft) 100,00 %
24.01.2026 08:20 2,6 °C 2,2 °C -1,7 °C 92 % 1001,6 hPa 0,0 l/m² 0 min 0 min 0 W/m² 3,2 km/h (1 Bft) 100,00 %
24.01.2026 08:22 2,6 °C 1,7 °C -1,7 °C 92 % 1001,7 hPa 0,0 l/m² 0 min 0 min 0 W/m² 9,7 km/h (2 Bft) 97,30 %
24.01.2026 08:24 2,6 °C 1,7 °C -1,7 °C 92 % 1001,6 hPa 0,0 l/m² 0 min 0 min 0 W/m² 6,4 km/h (2 Bft) 100,00 %
24.01.2026 08:26 2,6 °C 1,7 °C -1,7 °C 92 % 1001,6 hPa 0,0 l/m² 0 min 0 min 0 W/m² 9,7 km/h (2 Bft) 97,87 %
24.01.2026 08:28 2,6 °C 1,7 °C -1,7 °C 92 % 1001,6 hPa 0,0 l/m² 0 min 0 min 0 W/m² 12,9 km/h (3 Bft) 100,00 %
24.01.2026 08:30 2,6 °C 1,7 °C -1,7 °C 92 % 1001,6 hPa 0,0 l/m² 0 min 0 min 5 W/m² 12,9 km/h (3 Bft) 100,00 %
24.01.2026 08:32 2,6 °C 1,7 °C -1,7 °C 92 % 1001,7 hPa 0,0 l/m² 0 min 0 min 5 W/m² 12,9 km/h (3 Bft) 100,00 %
24.01.2026 08:42 2,6 °C 1,7 °C -1,7 °C 92 % 1001,9 hPa 0,0 l/m² 0 min 0 min 10 W/m² 12,9 km/h (3 Bft) 98,68 %
24.01.2026 08:50 2,5 °C 1,7 °C -1,7 °C 92 % 1001,9 hPa 0,0 l/m² 0 min 0 min 13 W/m² 6,4 km/h (2 Bft) 98,98 %
24.01.2026 08:55 2,5 °C 1,7 °C -1,7 °C 92 % 1001,9 hPa 0,0 l/m² 0 min 0 min 17 W/m² 16,1 km/h (3 Bft) 100,00 %
24.01.2026 09:02 2,4 °C 2,2 °C -1,7 °C 92 % 1001,9 hPa 0,0 l/m² 0 min 0 min 32 W/m² 12,9 km/h (3 Bft) 100,00 %
24.01.2026 09:10 2,4 °C 2,2 °C -1,7 °C 92 % 1001,9 hPa 0,0 l/m² 0 min 0 min 39 W/m² 6,4 km/h (2 Bft) 98,95 %
24.01.2026 09:15 2,4 °C 2,2 °C -1,7 °C 92 % 1002,0 hPa 0,0 l/m² 0 min 0 min 43 W/m² 16,1 km/h (3 Bft) 100,00 %
24.01.2026 09:20 2,4 °C 2,2 °C -1,7 °C 92 % 1002,0 hPa 0,0 l/m² 0 min 0 min 41 W/m² 19,3 km/h (3 Bft) 100,00 %
24.01.2026 09:30 2,5 °C 2,2 °C -1,7 °C 93 % 1002,1 hPa 0,0 l/m² 0 min 0 min 38 W/m² 19,3 km/h (3 Bft) 99,23 %
24.01.2026 09:32 2,5 °C 2,2 °C -1,7 °C 93 % 1002,0 hPa 0,0 l/m² 0 min 0 min 40 W/m² 16,1 km/h (3 Bft) 100,00 %
24.01.2026 09:38 2,5 °C 2,2 °C -1,7 °C 93 % 1002,0 hPa 0,0 l/m² 0 min 0 min 44 W/m² 12,9 km/h (3 Bft) 97,30 %
24.01.2026 09:46 2,6 °C 2,2 °C -1,7 °C 93 % 1002,1 hPa 0,0 l/m² 0 min 0 min 54 W/m² 16,1 km/h (3 Bft) 95,79 %
24.01.2026 09:52 2,6 °C 2,2 °C -1,1 °C 93 % 1002,1 hPa 0,0 l/m² 0 min 0 min 61 W/m² 12,9 km/h (3 Bft) 95,35 %
24.01.2026 09:55 2,6 °C 2,8 °C -1,1 °C 93 % 1002,2 hPa 0,0 l/m² 0 min 0 min 63 W/m² 16,1 km/h (3 Bft) 98,25 %
24.01.2026 10:02 2,7 °C 2,8 °C -1,1 °C 93 % 1002,1 hPa 0,0 l/m² 0 min 0 min 76 W/m² 16,1 km/h (3 Bft) 94,29 %
24.01.2026 10:07 2,7 °C 2,8 °C -1,1 °C 93 % 1002,1 hPa 0,0 l/m² 0 min 0 min 78 W/m² 16,1 km/h (3 Bft) 96,72 %
24.01.2026 10:10 2,8 °C 2,8 °C -1,1 °C 93 % 1002,1 hPa 0,0 l/m² 0 min 0 min 79 W/m² 16,1 km/h (3 Bft) 100,00 %
24.01.2026 10:18 2,9 °C 3,3 °C -1,1 °C 93 % 1002,1 hPa 0,0 l/m² 0 min 0 min 95 W/m² 12,9 km/h (3 Bft) 96,58 %
24.01.2026 10:25 3,1 °C 3,9 °C -0,6 °C 93 % 1002,2 hPa 0,0 l/m² 0 min 0 min 126 W/m² 12,9 km/h (3 Bft) 97,29 %
24.01.2026 10:30 3,3 °C 3,9 °C -0,6 °C 93 % 1002,2 hPa 0,0 l/m² 5 min 0 min 157 W/m² 16,1 km/h (3 Bft) 100,00 %
24.01.2026 10:34 3,4 °C 3,9 °C -0,6 °C 93 % 1002,2 hPa 0,0 l/m² 4 min 0 min 173 W/m² 16,1 km/h (3 Bft) 93,55 %
24.01.2026 10:40 3,7 °C 4,4 °C -0,6 °C 92 % 1002,3 hPa 0,0 l/m² 5 min 0 min 204 W/m² 12,9 km/h (3 Bft) 97,18 %
24.01.2026 10:46 3,9 °C 5,0 °C 0,0 °C 92 % 1002,3 hPa 0,0 l/m² 5 min 0 min 205 W/m² 19,3 km/h (3 Bft) 96,40 %
24.01.2026 10:54 4,2 °C 6,1 °C 0,0 °C 91 % 1002,4 hPa 0,0 l/m² 5 min 0 min 264 W/m² 16,1 km/h (3 Bft) 98,95 %
24.01.2026 11:00 4,4 °C 8,3 °C 0,0 °C 91 % 1002,4 hPa 0,0 l/m² 5 min 0 min 281 W/m² 12,9 km/h (3 Bft) 96,93 %
24.01.2026 11:05 4,8 °C 10,6 °C 0,6 °C 90 % 1002,4 hPa 0,0 l/m² 5 min 0 min 289 W/m² 19,3 km/h (3 Bft) 100,00 %
24.01.2026 11:10 5,1 °C 11,7 °C 0,6 °C 89 % 1002,5 hPa 0,0 l/m² 5 min 0 min 295 W/m² 25,7 km/h (4 Bft) 98,88 %
24.01.2026 11:16 5,4 °C 11,7 °C 0,6 °C 87 % 1002,6 hPa 0,0 l/m² 5 min 0 min 293 W/m² 16,1 km/h (3 Bft) 97,02 %
24.01.2026 11:20 5,6 °C 12,8 °C 0,6 °C 87 % 1002,5 hPa 0,0 l/m² 4 min 0 min 294 W/m² 19,3 km/h (3 Bft) 100,00 %
24.01.2026 11:26 5,8 °C 12,2 °C 0,6 °C 85 % 1002,6 hPa 0,0 l/m² 5 min 0 min 295 W/m² 16,1 km/h (3 Bft) 97,14 %
24.01.2026 11:34 6,1 °C 12,2 °C 1,1 °C 84 % 1002,5 hPa 0,0 l/m² 5 min 0 min 295 W/m² 12,9 km/h (3 Bft) 98,54 %
24.01.2026 11:38 6,2 °C 12,2 °C 1,1 °C 83 % 1002,5 hPa 0,0 l/m² 4 min 0 min 287 W/m² 16,1 km/h (3 Bft) 98,91 %
24.01.2026 11:40 6,2 °C 11,7 °C 1,1 °C 83 % 1002,5 hPa 0,0 l/m² 2 min 0 min 303 W/m² 16,1 km/h (3 Bft) 100,00 %
24.01.2026 11:42 6,2 °C 12,2 °C 0,6 °C 82 % 1002,5 hPa 0,0 l/m² 2 min 0 min 291 W/m² 16,1 km/h (3 Bft) 97,87 %
24.01.2026 11:44 6,2 °C 11,7 °C 0,6 °C 82 % 1002,5 hPa 0,0 l/m² 2 min 0 min 275 W/m² 19,3 km/h (3 Bft) 100,00 %
24.01.2026 11:46 6,2 °C 11,1 °C 0,6 °C 82 % 1002,6 hPa 0,0 l/m² 2 min 0 min 283 W/m² 19,3 km/h (3 Bft) 100,00 %
24.01.2026 11:48 6,2 °C 10,6 °C 0,6 °C 81 % 1002,6 hPa 0,0 l/m² 2 min 0 min 233 W/m² 19,3 km/h (3 Bft) 97,96 %
24.01.2026 11:50 6,2 °C 10,6 °C 0,6 °C 81 % 1002,6 hPa 0,0 l/m² 2 min 0 min 191 W/m² 16,1 km/h (3 Bft) 100,00 %
24.01.2026 11:52 6,2 °C 10,6 °C 0,6 °C 81 % 1002,6 hPa 0,0 l/m² 2 min 0 min 247 W/m² 19,3 km/h (3 Bft) 100,00 %
24.01.2026 11:54 6,2 °C 10,0 °C 1,1 °C 81 % 1002,6 hPa 0,0 l/m² 2 min 0 min 258 W/m² 9,7 km/h (2 Bft) 95,74 %
24.01.2026 11:56 6,3 °C 10,6 °C 1,1 °C 81 % 1002,6 hPa 0,0 l/m² 2 min 0 min 276 W/m² 6,4 km/h (2 Bft) 100,00 %
24.01.2026 11:58 6,3 °C 11,1 °C 1,1 °C 81 % 1002,6 hPa 0,0 l/m² 0 min 0 min 180 W/m² 16,1 km/h (3 Bft) 98,15 %
24.01.2026 12:00 6,3 °C 12,2 °C 1,1 °C 81 % 1002,5 hPa 0,0 l/m² 0 min 0 min 136 W/m² 16,1 km/h (3 Bft) 100,00 %
24.01.2026 12:02 6,3 °C 12,2 °C 1,1 °C 81 % 1002,6 hPa 0,0 l/m² 0 min 0 min 81 W/m² 12,9 km/h (3 Bft) 100,00 %
24.01.2026 12:04 6,3 °C 11,7 °C 1,1 °C 81 % 1002,5 hPa 0,0 l/m² 0 min 0 min 76 W/m² 12,9 km/h (3 Bft) 100,00 %
24.01.2026 12:08 6,4 °C 9,4 °C 1,1 °C 81 % 1002,5 hPa 0,0 l/m² 0 min 0 min 105 W/m² 6,4 km/h (2 Bft) 97,06 %
24.01.2026 12:12 6,5 °C 8,3 °C 1,1 °C 81 % 1002,5 hPa 0,0 l/m² 0 min 0 min 113 W/m² 6,4 km/h (2 Bft) 97,87 %
24.01.2026 12:16 6,5 °C 8,9 °C 1,1 °C 81 % 1002,5 hPa 0,0 l/m² 0 min 0 min 122 W/m² 16,1 km/h (3 Bft) 100,00 %
24.01.2026 12:18 6,5 °C 9,4 °C 1,1 °C 80 % 1002,4 hPa 0,0 l/m² 2 min 0 min 212 W/m² 16,1 km/h (3 Bft) 100,00 %
24.01.2026 12:20 6,5 °C 9,4 °C 1,1 °C 80 % 1002,5 hPa 0,0 l/m² 2 min 0 min 310 W/m² 12,9 km/h (3 Bft) 100,00 %
24.01.2026 12:22 6,5 °C 8,9 °C 1,1 °C 80 % 1002,5 hPa 0,0 l/m² 2 min 0 min 239 W/m² 16,1 km/h (3 Bft) 97,92 %
24.01.2026 12:24 6,5 °C 9,4 °C 1,1 °C 80 % 1002,5 hPa 0,0 l/m² 2 min 0 min 300 W/m² 12,9 km/h (3 Bft) 97,87 %
24.01.2026 12:26 6,5 °C 10,0 °C 1,1 °C 80 % 1002,4 hPa 0,0 l/m² 2 min 0 min 314 W/m² 16,1 km/h (3 Bft) 97,87 %
24.01.2026 12:28 6,6 °C 10,0 °C 1,1 °C 80 % 1002,4 hPa 0,0 l/m² 2 min 0 min 316 W/m² 16,1 km/h (3 Bft) 97,87 %
24.01.2026 12:30 6,6 °C 10,6 °C 1,1 °C 80 % 1002,5 hPa 0,0 l/m² 2 min 0 min 330 W/m² 16,1 km/h (3 Bft) 95,74 %
24.01.2026 12:32 6,6 °C 11,7 °C 1,7 °C 80 % 1002,5 hPa 0,0 l/m² 2 min 0 min 329 W/m² 6,4 km/h (2 Bft) 97,87 %
24.01.2026 12:34 6,7 °C 12,2 °C 1,7 °C 80 % 1002,5 hPa 0,0 l/m² 2 min 0 min 329 W/m² 12,9 km/h (3 Bft) 97,83 %
24.01.2026 12:36 6,7 °C 11,7 °C 1,7 °C 80 % 1002,5 hPa 0,0 l/m² 2 min 0 min 330 W/m² 16,1 km/h (3 Bft) 95,74 %
24.01.2026 12:38 6,8 °C 12,2 °C 1,7 °C 80 % 1002,5 hPa 0,0 l/m² 2 min 0 min 330 W/m² 12,9 km/h (3 Bft) 97,87 %
24.01.2026 12:40 6,8 °C 13,3 °C 1,7 °C 80 % 1002,5 hPa 0,0 l/m² 2 min 0 min 329 W/m² 12,9 km/h (3 Bft) 97,87 %
24.01.2026 12:42 6,9 °C 13,3 °C 1,7 °C 79 % 1002,5 hPa 0,0 l/m² 2 min 0 min 331 W/m² 19,3 km/h (3 Bft) 97,83 %
24.01.2026 12:46 6,9 °C 12,8 °C 1,7 °C 79 % 1002,6 hPa 0,0 l/m² 4 min 0 min 331 W/m² 16,1 km/h (3 Bft) 96,81 %
24.01.2026 12:50 7,0 °C 14,4 °C 1,7 °C 79 % 1002,6 hPa 0,0 l/m² 4 min 0 min 329 W/m² 12,9 km/h (3 Bft) 95,60 %
24.01.2026 12:54 7,2 °C 13,9 °C 1,7 °C 78 % 1002,6 hPa 0,0 l/m² 4 min 0 min 327 W/m² 12,9 km/h (3 Bft) 94,85 %
24.01.2026 12:58 7,3 °C 15,0 °C 1,7 °C 78 % 1002,6 hPa 0,0 l/m² 4 min 0 min 325 W/m² 9,7 km/h (2 Bft) 96,00 %
24.01.2026 13:02 7,4 °C 15,0 °C 1,7 °C 78 % 1002,6 hPa 0,0 l/m² 4 min 0 min 325 W/m² 16,1 km/h (3 Bft) 96,43 %
24.01.2026 13:06 7,5 °C 14,4 °C 1,7 °C 77 % 1002,6 hPa 0,0 l/m² 4 min 0 min 325 W/m² 16,1 km/h (3 Bft) 97,03 %
24.01.2026 13:10 7,6 °C 15,0 °C 1,7 °C 77 % 1002,5 hPa 0,0 l/m² 4 min 0 min 324 W/m² 12,9 km/h (3 Bft) 97,80 %
24.01.2026 13:14 7,7 °C 14,4 °C 1,7 °C 77 % 1002,6 hPa 0,0 l/m² 4 min 0 min 328 W/m² 16,1 km/h (3 Bft) 96,81 %
24.01.2026 13:18 7,8 °C 13,9 °C 2,2 °C 76 % 1002,6 hPa 0,0 l/m² 4 min 0 min 324 W/m² 19,3 km/h (3 Bft) 94,29 %
24.01.2026 13:22 7,9 °C 14,4 °C 1,7 °C 76 % 1002,6 hPa 0,0 l/m² 4 min 0 min 323 W/m² 19,3 km/h (3 Bft) 95,79 %
24.01.2026 13:26 7,9 °C 15,0 °C 1,7 °C 76 % 1002,5 hPa 0,0 l/m² 4 min 0 min 322 W/m² 12,9 km/h (3 Bft) 97,87 %
24.01.2026 13:30 8,0 °C 15,6 °C 2,2 °C 76 % 1002,5 hPa 0,0 l/m² 4 min 0 min 321 W/m² 16,1 km/h (3 Bft) 96,81 %
24.01.2026 13:34 8,1 °C 14,4 °C 1,7 °C 76 % 1002,4 hPa 0,0 l/m² 4 min 0 min 319 W/m² 16,1 km/h (3 Bft) 98,78 %
24.01.2026 13:38 8,2 °C 14,4 °C 1,7 °C 75 % 1002,4 hPa 0,0 l/m² 4 min 0 min 316 W/m² 16,1 km/h (3 Bft) 97,03 %
24.01.2026 13:42 8,2 °C 14,4 °C 2,2 °C 75 % 1002,4 hPa 0,0 l/m² 4 min 0 min 310 W/m² 19,3 km/h (3 Bft) 100,00 %
24.01.2026 13:46 8,2 °C 14,4 °C 2,2 °C 75 % 1002,3 hPa 0,0 l/m² 4 min 0 min 309 W/m² 12,9 km/h (3 Bft) 100,00 %
24.01.2026 13:48 8,2 °C 14,4 °C 2,2 °C 75 % 1002,4 hPa 0,0 l/m² 2 min 0 min 308 W/m² 12,9 km/h (3 Bft) 97,87 %
24.01.2026 13:50 8,2 °C 14,4 °C 2,2 °C 75 % 1002,4 hPa 0,0 l/m² 2 min 0 min 305 W/m² 12,9 km/h (3 Bft) 100,00 %
24.01.2026 13:52 8,2 °C 14,4 °C 2,2 °C 75 % 1002,3 hPa 0,0 l/m² 2 min 0 min 302 W/m² 6,4 km/h (2 Bft) 100,00 %
24.01.2026 13:54 8,3 °C 13,9 °C 2,2 °C 75 % 1002,3 hPa 0,0 l/m² 2 min 0 min 302 W/m² 9,7 km/h (2 Bft) 100,00 %
24.01.2026 13:56 8,3 °C 13,3 °C 2,2 °C 75 % 1002,2 hPa 0,0 l/m² 2 min 0 min 299 W/m² 12,9 km/h (3 Bft) 100,00 %
24.01.2026 13:58 8,4 °C 13,3 °C 2,2 °C 75 % 1002,2 hPa 0,0 l/m² 2 min 0 min 298 W/m² 6,4 km/h (2 Bft) 100,00 %
24.01.2026 14:00 8,4 °C 13,3 °C 2,2 °C 75 % 1002,2 hPa 0,0 l/m² 2 min 0 min 296 W/m² 12,9 km/h (3 Bft) 100,00 %
24.01.2026 14:02 8,4 °C 12,8 °C 2,2 °C 75 % 1002,1 hPa 0,0 l/m² 2 min 0 min 296 W/m² 12,9 km/h (3 Bft) 100,00 %
24.01.2026 14:04 8,4 °C 12,8 °C 2,2 °C 75 % 1002,1 hPa 0,0 l/m² 2 min 0 min 296 W/m² 9,7 km/h (2 Bft) 97,87 %
24.01.2026 14:08 8,5 °C 12,8 °C 2,2 °C 74 % 1002,0 hPa 0,0 l/m² 4 min 0 min 293 W/m² 12,9 km/h (3 Bft) 98,94 %
24.01.2026 14:10 8,5 °C 12,8 °C 2,2 °C 75 % 1002,0 hPa 0,0 l/m² 2 min 0 min 287 W/m² 9,7 km/h (2 Bft) 100,00 %
24.01.2026 14:12 8,4 °C 12,8 °C 2,2 °C 75 % 1002,0 hPa 0,0 l/m² 2 min 0 min 284 W/m² 12,9 km/h (3 Bft) 100,00 %
24.01.2026 14:14 8,4 °C 12,8 °C 2,2 °C 75 % 1002,0 hPa 0,0 l/m² 2 min 0 min 282 W/m² 6,4 km/h (2 Bft) 100,00 %
24.01.2026 14:16 8,5 °C 12,8 °C 2,2 °C 75 % 1002,0 hPa 0,0 l/m² 2 min 0 min 280 W/m² 6,4 km/h (2 Bft) 97,87 %
24.01.2026 14:18 8,5 °C 12,2 °C 2,2 °C 75 % 1002,0 hPa 0,0 l/m² 2 min 0 min 278 W/m² 12,9 km/h (3 Bft) 97,83 %
24.01.2026 14:20 8,5 °C 12,2 °C 2,2 °C 75 % 1002,0 hPa 0,0 l/m² 2 min 0 min 250 W/m² 6,4 km/h (2 Bft) 100,00 %
24.01.2026 14:22 8,4 °C 11,1 °C 2,2 °C 75 % 1002,0 hPa 0,0 l/m² 0 min 0 min 152 W/m² 12,9 km/h (3 Bft) 97,83 %
24.01.2026 14:24 8,4 °C 10,0 °C 2,2 °C 75 % 1002,1 hPa 0,0 l/m² 0 min 0 min 111 W/m² 12,9 km/h (3 Bft) 97,83 %
24.01.2026 14:26 8,4 °C 10,6 °C 2,2 °C 75 % 1002,1 hPa 0,0 l/m² 2 min 0 min 222 W/m² 6,4 km/h (2 Bft) 100,00 %
24.01.2026 14:28 8,3 °C 11,1 °C 2,2 °C 75 % 1002,1 hPa 0,0 l/m² 2 min 0 min 264 W/m² 12,9 km/h (3 Bft) 100,00 %
24.01.2026 14:30 8,3 °C 11,7 °C 2,2 °C 75 % 1002,1 hPa 0,0 l/m² 2 min 0 min 259 W/m² 6,4 km/h (2 Bft) 100,00 %
24.01.2026 14:32 8,3 °C 11,7 °C 2,2 °C 76 % 1002,0 hPa 0,0 l/m² 2 min 0 min 237 W/m² 12,9 km/h (3 Bft) 100,00 %
24.01.2026 14:34 8,3 °C 10,6 °C 2,2 °C 76 % 1002,0 hPa 0,0 l/m² 0 min 0 min 150 W/m² 16,1 km/h (3 Bft) 100,00 %
24.01.2026 14:36 8,3 °C 9,4 °C 2,2 °C 76 % 1002,1 hPa 0,0 l/m² 0 min 0 min 122 W/m² 16,1 km/h (3 Bft) 98,11 %
24.01.2026 14:38 8,3 °C 10,0 °C 2,2 °C 76 % 1002,1 hPa 0,0 l/m² 2 min 0 min 170 W/m² 9,7 km/h (2 Bft) 100,00 %
24.01.2026 14:40 8,3 °C 11,1 °C 2,2 °C 76 % 1002,1 hPa 0,0 l/m² 2 min 0 min 258 W/m² 6,4 km/h (2 Bft) 100,00 %
24.01.2026 14:42 8,3 °C 11,7 °C 2,2 °C 76 % 1002,1 hPa 0,0 l/m² 2 min 0 min 258 W/m² 12,9 km/h (3 Bft) 97,22 %
24.01.2026 14:44 8,3 °C 12,2 °C 2,2 °C 75 % 1002,1 hPa 0,0 l/m² 2 min 0 min 233 W/m² 12,9 km/h (3 Bft) 98,28 %
24.01.2026 14:46 8,4 °C 11,1 °C 2,2 °C 75 % 1002,1 hPa 0,0 l/m² 2 min 0 min 153 W/m² 16,1 km/h (3 Bft) 100,00 %
24.01.2026 14:48 8,4 °C 10,6 °C 2,2 °C 75 % 1002,1 hPa 0,0 l/m² 2 min 0 min 165 W/m² 9,7 km/h (2 Bft) 100,00 %
24.01.2026 14:50 8,4 °C 10,6 °C 2,2 °C 75 % 1002,1 hPa 0,0 l/m² 2 min 0 min 162 W/m² 16,1 km/h (3 Bft) 97,83 %
24.01.2026 14:52 8,4 °C 10,6 °C 2,2 °C 75 % 1002,2 hPa 0,0 l/m² 2 min 0 min 185 W/m² 12,9 km/h (3 Bft) 100,00 %
24.01.2026 14:54 8,4 °C 10,6 °C 2,2 °C 75 % 1002,2 hPa 0,0 l/m² 2 min 0 min 185 W/m² 12,9 km/h (3 Bft) 97,83 %
24.01.2026 14:56 8,4 °C 10,0 °C 2,2 °C 75 % 1002,2 hPa 0,0 l/m² 2 min 0 min 139 W/m² 12,9 km/h (3 Bft) 97,78 %
24.01.2026 14:58 8,3 °C 10,0 °C 2,2 °C 75 % 1002,2 hPa 0,0 l/m² 2 min 0 min 145 W/m² 12,9 km/h (3 Bft) 100,00 %
24.01.2026 15:00 8,3 °C 10,6 °C 2,2 °C 75 % 1002,2 hPa 0,0 l/m² 2 min 0 min 194 W/m² 9,7 km/h (2 Bft) 95,74 %
24.01.2026 15:02 8,3 °C 11,1 °C 2,2 °C 75 % 1002,2 hPa 0,0 l/m² 2 min 0 min 216 W/m² 12,9 km/h (3 Bft) 95,74 %
24.01.2026 15:04 8,3 °C 11,1 °C 2,2 °C 76 % 1002,2 hPa 0,0 l/m² 2 min 0 min 206 W/m² 9,7 km/h (2 Bft) 98,31 %
24.01.2026 15:08 8,2 °C 11,7 °C 2,2 °C 76 % 1002,2 hPa 0,0 l/m² 4 min 0 min 204 W/m² 12,9 km/h (3 Bft) 97,87 %
24.01.2026 15:10 8,2 °C 11,7 °C 2,2 °C 75 % 1002,3 hPa 0,0 l/m² 2 min 0 min 192 W/m² 12,9 km/h (3 Bft) 97,78 %
24.01.2026 15:12 8,2 °C 11,1 °C 2,2 °C 75 % 1002,3 hPa 0,0 l/m² 2 min 0 min 186 W/m² 12,9 km/h (3 Bft) 97,83 %
24.01.2026 15:14 8,2 °C 11,1 °C 2,2 °C 75 % 1002,3 hPa 0,0 l/m² 2 min 0 min 185 W/m² 12,9 km/h (3 Bft) 97,83 %
24.01.2026 15:16 8,2 °C 10,0 °C 2,2 °C 75 % 1002,3 hPa 0,0 l/m² 2 min 0 min 132 W/m² 6,4 km/h (2 Bft) 97,78 %
24.01.2026 15:18 8,1 °C 8,9 °C 2,2 °C 75 % 1002,4 hPa 0,0 l/m² 0 min 0 min 72 W/m² 12,9 km/h (3 Bft) 97,50 %
24.01.2026 15:20 8,1 °C 8,3 °C 2,2 °C 75 % 1002,4 hPa 0,0 l/m² 0 min 0 min 80 W/m² 12,9 km/h (3 Bft) 97,87 %
24.01.2026 15:22 8,0 °C 7,8 °C 1,7 °C 75 % 1002,4 hPa 0,0 l/m² 0 min 0 min 98 W/m² 12,9 km/h (3 Bft) 96,55 %
24.01.2026 15:24 7,9 °C 7,8 °C 1,7 °C 75 % 1002,5 hPa 0,0 l/m² 0 min 0 min 104 W/m² 6,4 km/h (2 Bft) 95,65 %
24.01.2026 15:26 7,9 °C 7,2 °C 1,7 °C 75 % 1002,5 hPa 0,0 l/m² 0 min 0 min 108 W/m² 12,9 km/h (3 Bft) 97,73 %
24.01.2026 15:28 7,8 °C 7,2 °C 1,7 °C 76 % 1002,5 hPa 0,0 l/m² 0 min 0 min 107 W/m² 12,9 km/h (3 Bft) 100,00 %
24.01.2026 15:30 7,8 °C 6,7 °C 1,7 °C 76 % 1002,4 hPa 0,0 l/m² 0 min 0 min 94 W/m² 12,9 km/h (3 Bft) 97,83 %
24.01.2026 15:32 7,7 °C 6,7 °C 1,7 °C 76 % 1002,5 hPa 0,0 l/m² 0 min 0 min 59 W/m² 16,1 km/h (3 Bft) 91,49 %
24.01.2026 15:34 7,7 °C 6,7 °C 1,7 °C 75 % 1002,5 hPa 0,0 l/m² 0 min 0 min 41 W/m² 6,4 km/h (2 Bft) 98,28 %
24.01.2026 15:36 7,6 °C 6,1 °C 1,7 °C 76 % 1002,5 hPa 0,0 l/m² 0 min 0 min 37 W/m² 6,4 km/h (2 Bft) 93,33 %
24.01.2026 15:38 7,5 °C 6,1 °C 1,7 °C 76 % 1002,5 hPa 0,0 l/m² 0 min 0 min 35 W/m² 6,4 km/h (2 Bft) 95,45 %
24.01.2026 15:40 7,4 °C 6,1 °C 1,7 °C 76 % 1002,5 hPa 0,0 l/m² 0 min 0 min 36 W/m² 12,9 km/h (3 Bft) 95,12 %
24.01.2026 15:42 7,3 °C 6,1 °C 1,7 °C 76 % 1002,5 hPa 0,0 l/m² 0 min 0 min 39 W/m² 12,9 km/h (3 Bft) 95,65 %
24.01.2026 15:44 7,2 °C 6,1 °C 1,7 °C 76 % 1002,5 hPa 0,0 l/m² 0 min 0 min 44 W/m² 9,7 km/h (2 Bft) 98,31 %
24.01.2026 15:46 7,2 °C 6,1 °C 1,7 °C 76 % 1002,5 hPa 0,0 l/m² 0 min 0 min 44 W/m² 6,4 km/h (2 Bft) 95,65 %
24.01.2026 15:48 7,1 °C 6,1 °C 1,7 °C 76 % 1002,5 hPa 0,0 l/m² 0 min 0 min 45 W/m² 6,4 km/h (2 Bft) 95,65 %
24.01.2026 15:50 7,1 °C 6,1 °C 1,7 °C 77 % 1002,5 hPa 0,0 l/m² 0 min 0 min 45 W/m² 9,7 km/h (2 Bft) 93,62 %
24.01.2026 15:52 7,0 °C 6,1 °C 1,1 °C 77 % 1002,5 hPa 0,0 l/m² 0 min 0 min 40 W/m² 12,9 km/h (3 Bft) 95,74 %
24.01.2026 15:54 6,9 °C 5,6 °C 1,1 °C 78 % 1002,6 hPa 0,0 l/m² 0 min 0 min 35 W/m² 6,4 km/h (2 Bft) 95,65 %
24.01.2026 15:56 6,9 °C 5,6 °C 1,1 °C 78 % 1002,5 hPa 0,0 l/m² 0 min 0 min 34 W/m² 6,4 km/h (2 Bft) 93,62 %
24.01.2026 15:58 6,8 °C 5,6 °C 1,1 °C 78 % 1002,5 hPa 0,0 l/m² 0 min 0 min 33 W/m² 6,4 km/h (2 Bft) 95,56 %
24.01.2026 16:00 6,7 °C 5,6 °C 1,1 °C 78 % 1002,4 hPa 0,0 l/m² 0 min 0 min 35 W/m² 6,4 km/h (2 Bft) 95,65 %
24.01.2026 16:02 6,6 °C 5,6 °C 1,1 °C 79 % 1002,4 hPa 0,0 l/m² 0 min 0 min 35 W/m² 3,2 km/h (1 Bft) 95,65 %
24.01.2026 16:04 6,6 °C 5,6 °C 1,1 °C 79 % 1002,4 hPa 0,0 l/m² 0 min 0 min 35 W/m² 6,4 km/h (2 Bft) 97,56 %
24.01.2026 16:08 6,4 °C 5,6 °C 1,1 °C 79 % 1002,4 hPa 0,0 l/m² 0 min 0 min 35 W/m² 6,4 km/h (2 Bft) 93,62 %
24.01.2026 16:10 6,4 °C 5,6 °C 1,1 °C 80 % 1002,4 hPa 0,0 l/m² 0 min 0 min 37 W/m² 6,4 km/h (2 Bft) 95,74 %
24.01.2026 16:12 6,3 °C 5,6 °C 1,1 °C 80 % 1002,4 hPa 0,0 l/m² 0 min 0 min 37 W/m² 6,4 km/h (2 Bft) 94,55 %
24.01.2026 16:14 6,3 °C 5,6 °C 1,1 °C 80 % 1002,4 hPa 0,0 l/m² 0 min 0 min 35 W/m² 3,2 km/h (1 Bft) 95,74 %
24.01.2026 16:16 6,2 °C 5,6 °C 1,1 °C 80 % 1002,4 hPa 0,0 l/m² 0 min 0 min 35 W/m² 3,2 km/h (1 Bft) 95,74 %
24.01.2026 16:18 6,2 °C 5,0 °C 1,1 °C 80 % 1002,4 hPa 0,0 l/m² 0 min 0 min 35 W/m² 6,4 km/h (2 Bft) 94,74 %
24.01.2026 16:20 6,2 °C 5,0 °C 0,6 °C 80 % 1002,5 hPa 0,0 l/m² 0 min 0 min 35 W/m² 6,4 km/h (2 Bft) 97,87 %
24.01.2026 16:22 6,1 °C 5,0 °C 0,6 °C 80 % 1002,5 hPa 0,0 l/m² 0 min 0 min 39 W/m² 6,4 km/h (2 Bft) 98,21 %
24.01.2026 16:24 6,1 °C 5,0 °C 0,6 °C 80 % 1002,5 hPa 0,0 l/m² 0 min 0 min 38 W/m² 6,4 km/h (2 Bft) 95,92 %
24.01.2026 16:26 6,1 °C 5,0 °C 0,6 °C 80 % 1002,5 hPa 0,0 l/m² 0 min 0 min 34 W/m² 3,2 km/h (1 Bft) 100,00 %
24.01.2026 16:28 6,1 °C 5,0 °C 0,6 °C 80 % 1002,5 hPa 0,0 l/m² 0 min 0 min 30 W/m² 9,7 km/h (2 Bft) 97,83 %
24.01.2026 16:30 6,0 °C 5,0 °C 0,6 °C 80 % 1002,5 hPa 0,0 l/m² 0 min 0 min 26 W/m² 6,4 km/h (2 Bft) 100,00 %
24.01.2026 16:32 5,9 °C 5,0 °C 0,6 °C 80 % 1002,6 hPa 0,0 l/m² 0 min 0 min 22 W/m² 6,4 km/h (2 Bft) 100,00 %
24.01.2026 16:34 5,9 °C 5,0 °C 0,6 °C 81 % 1002,5 hPa 0,0 l/m² 0 min 0 min 19 W/m² 6,4 km/h (2 Bft) 100,00 %
24.01.2026 16:36 5,9 °C 5,0 °C 0,6 °C 81 % 1002,5 hPa 0,0 l/m² 0 min 0 min 18 W/m² 3,2 km/h (1 Bft) 98,18 %
24.01.2026 16:38 5,8 °C 4,4 °C 0,6 °C 81 % 1002,5 hPa 0,0 l/m² 0 min 0 min 17 W/m² 6,4 km/h (2 Bft) 97,96 %
24.01.2026 16:40 5,8 °C 4,4 °C 0,6 °C 81 % 1002,6 hPa 0,0 l/m² 0 min 0 min 16 W/m² 3,2 km/h (1 Bft) 100,00 %
24.01.2026 16:42 5,7 °C 4,4 °C 0,6 °C 81 % 1002,6 hPa 0,0 l/m² 0 min 0 min 16 W/m² 3,2 km/h (1 Bft) 97,87 %
24.01.2026 16:44 5,7 °C 4,4 °C 0,6 °C 81 % 1002,6 hPa 0,0 l/m² 0 min 0 min 15 W/m² 6,4 km/h (2 Bft) 98,11 %
24.01.2026 16:46 5,6 °C 4,4 °C 0,6 °C 81 % 1002,7 hPa 0,0 l/m² 0 min 0 min 15 W/m² 6,4 km/h (2 Bft) 100,00 %
24.01.2026 16:48 5,6 °C 4,4 °C 0,6 °C 81 % 1002,7 hPa 0,0 l/m² 0 min 0 min 16 W/m² 12,9 km/h (3 Bft) 100,00 %
24.01.2026 16:50 5,5 °C 4,4 °C 0,6 °C 81 % 1002,7 hPa 0,0 l/m² 0 min 0 min 16 W/m² 6,4 km/h (2 Bft) 100,00 %
24.01.2026 16:52 5,4 °C 4,4 °C 0,6 °C 81 % 1002,7 hPa 0,0 l/m² 0 min 0 min 15 W/m² 6,4 km/h (2 Bft) 100,00 %
24.01.2026 16:54 5,4 °C 4,4 °C 0,6 °C 81 % 1002,7 hPa 0,0 l/m² 0 min 0 min 15 W/m² 6,4 km/h (2 Bft) 100,00 %
24.01.2026 16:56 5,4 °C 4,4 °C 0,6 °C 81 % 1002,7 hPa 0,0 l/m² 0 min 0 min 16 W/m² 3,2 km/h (1 Bft) 100,00 %
24.01.2026 16:58 5,3 °C 4,4 °C 0,0 °C 81 % 1002,6 hPa 0,0 l/m² 0 min 0 min 14 W/m² 12,9 km/h (3 Bft) 100,00 %
24.01.2026 17:00 5,3 °C 4,4 °C 0,0 °C 81 % 1002,6 hPa 0,0 l/m² 0 min 0 min 13 W/m² 6,4 km/h (2 Bft) 97,96 %
24.01.2026 17:02 5,2 °C 4,4 °C 0,0 °C 81 % 1002,6 hPa 0,0 l/m² 0 min 0 min 12 W/m² 6,4 km/h (2 Bft) 97,22 %
24.01.2026 17:04 5,2 °C 3,9 °C 0,0 °C 81 % 1002,5 hPa 0,0 l/m² 0 min 0 min 10 W/m² 6,4 km/h (2 Bft) 100,00 %
24.01.2026 17:08 5,1 °C 3,9 °C 0,0 °C 81 % 1002,5 hPa 0,0 l/m² 0 min 0 min 8 W/m² 6,4 km/h (2 Bft) 94,68 %
24.01.2026 17:10 5,1 °C 3,9 °C 0,0 °C 81 % 1002,5 hPa 0,0 l/m² 0 min 0 min 5 W/m² 12,9 km/h (3 Bft) 97,87 %
24.01.2026 17:12 5,1 °C 3,9 °C 0,0 °C 81 % 1002,5 hPa 0,0 l/m² 0 min 0 min 5 W/m² 6,4 km/h (2 Bft) 97,87 %
24.01.2026 17:14 5,0 °C 3,9 °C 0,0 °C 81 % 1002,4 hPa 0,0 l/m² 0 min 0 min 4 W/m² 6,4 km/h (2 Bft) 95,74 %
24.01.2026 17:16 4,9 °C 3,9 °C 0,0 °C 81 % 1002,4 hPa 0,0 l/m² 0 min 0 min 0 W/m² 6,4 km/h (2 Bft) 98,11 %
24.01.2026 17:18 4,9 °C 3,9 °C 0,0 °C 81 % 1002,5 hPa 0,0 l/m² 0 min 0 min 0 W/m² 6,4 km/h (2 Bft) 97,96 %
24.01.2026 17:20 4,8 °C 3,9 °C 0,0 °C 81 % 1002,4 hPa 0,0 l/m² 0 min 0 min 0 W/m² 6,4 km/h (2 Bft) 97,37 %
24.01.2026 17:22 4,8 °C 3,9 °C 0,0 °C 81 % 1002,4 hPa 0,0 l/m² 0 min 0 min 0 W/m² 12,9 km/h (3 Bft) 97,83 %
24.01.2026 17:24 4,8 °C 3,3 °C 0,0 °C 80 % 1002,4 hPa 0,0 l/m² 0 min 0 min 0 W/m² 6,4 km/h (2 Bft) 97,92 %
24.01.2026 17:26 4,7 °C 3,3 °C -0,6 °C 80 % 1002,4 hPa 0,0 l/m² 0 min 0 min 0 W/m² 6,4 km/h (2 Bft) 97,87 %
24.01.2026 17:28 4,6 °C 3,3 °C -0,6 °C 80 % 1002,5 hPa 0,0 l/m² 0 min 0 min 0 W/m² 6,4 km/h (2 Bft) 98,21 %
24.01.2026 17:30 4,6 °C 3,3 °C -0,6 °C 80 % 1002,5 hPa 0,0 l/m² 0 min 0 min 0 W/m² 12,9 km/h (3 Bft) 95,65 %
24.01.2026 17:32 4,6 °C 3,3 °C -0,6 °C 81 % 1002,5 hPa 0,0 l/m² 0 min 0 min 0 W/m² 6,4 km/h (2 Bft) 97,78 %
24.01.2026 17:34 4,5 °C 3,3 °C -0,6 °C 80 % 1002,5 hPa 0,0 l/m² 0 min 0 min 0 W/m² 6,4 km/h (2 Bft) 95,65 %
24.01.2026 17:36 4,4 °C 3,3 °C -0,6 °C 81 % 1002,4 hPa 0,0 l/m² 0 min 0 min 0 W/m² 6,4 km/h (2 Bft) 91,67 %
24.01.2026 17:38 4,4 °C 3,3 °C -0,6 °C 81 % 1002,4 hPa 0,0 l/m² 0 min 0 min 0 W/m² 3,2 km/h (1 Bft) 97,83 %
24.01.2026 17:40 4,4 °C 2,8 °C -0,6 °C 80 % 1002,3 hPa 0,0 l/m² 0 min 0 min 0 W/m² 6,4 km/h (2 Bft) 97,50 %
24.01.2026 17:42 4,3 °C 2,8 °C -1,1 °C 80 % 1002,2 hPa 0,0 l/m² 0 min 0 min 0 W/m² 6,4 km/h (2 Bft) 93,62 %
24.01.2026 17:44 4,3 °C 2,8 °C -1,1 °C 80 % 1002,3 hPa 0,0 l/m² 0 min 0 min 0 W/m² 6,4 km/h (2 Bft) 93,62 %
24.01.2026 17:46 4,2 °C 2,8 °C -1,1 °C 80 % 1002,3 hPa 0,0 l/m² 0 min 0 min 0 W/m² 6,4 km/h (2 Bft) 97,87 %
24.01.2026 17:48 4,2 °C 2,8 °C -1,1 °C 81 % 1002,4 hPa 0,0 l/m² 0 min 0 min 0 W/m² 3,2 km/h (1 Bft) 97,87 %
24.01.2026 17:50 4,1 °C 2,8 °C -1,1 °C 81 % 1002,5 hPa 0,0 l/m² 0 min 0 min 0 W/m² 3,2 km/h (1 Bft) 97,83 %
24.01.2026 17:52 4,1 °C 2,8 °C -1,1 °C 81 % 1002,5 hPa 0,0 l/m² 0 min 0 min 0 W/m² 3,2 km/h (1 Bft) 97,87 %
24.01.2026 17:54 4,1 °C 2,8 °C -1,1 °C 81 % 1002,5 hPa 0,0 l/m² 0 min 0 min 0 W/m² 6,4 km/h (2 Bft) 98,21 %
24.01.2026 17:56 4,1 °C 2,8 °C -1,1 °C 81 % 1002,4 hPa 0,0 l/m² 0 min 0 min 0 W/m² 0,0 km/h (0 Bft) 93,18 %
24.01.2026 17:58 4,0 °C 2,2 °C -1,1 °C 81 % 1002,4 hPa 0,0 l/m² 0 min 0 min 0 W/m² 3,2 km/h (1 Bft) 97,56 %
24.01.2026 18:00 3,9 °C 2,2 °C -1,7 °C 81 % 1002,4 hPa 0,0 l/m² 0 min 0 min 0 W/m² 3,2 km/h (1 Bft) 97,87 %
24.01.2026 18:02 3,9 °C 2,2 °C -1,7 °C 81 % 1002,4 hPa 0,0 l/m² 0 min 0 min 0 W/m² 0,0 km/h (0 Bft) 97,83 %
24.01.2026 18:04 3,9 °C 2,2 °C -1,7 °C 80 % 1002,5 hPa 0,0 l/m² 0 min 0 min 0 W/m² 0,0 km/h (0 Bft) 95,74 %
24.01.2026 18:08 3,8 °C 1,7 °C -1,7 °C 81 % 1002,5 hPa 0,0 l/m² 0 min 0 min 0 W/m² 3,2 km/h (1 Bft) 96,84 %
24.01.2026 18:12 3,7 °C 1,7 °C -1,7 °C 81 % 1002,4 hPa 0,0 l/m² 0 min 0 min 0 W/m² 0,0 km/h (0 Bft) 97,64 %
24.01.2026 18:14 3,6 °C 1,7 °C -2,2 °C 81 % 1002,3 hPa 0,0 l/m² 0 min 0 min 0 W/m² 3,2 km/h (1 Bft) 98,86 %
24.01.2026 18:16 3,6 °C 1,7 °C -2,2 °C 81 % 1002,3 hPa 0,0 l/m² 0 min 0 min 0 W/m² 3,2 km/h (1 Bft) 100,00 %
24.01.2026 18:18 3,5 °C 1,1 °C -2,2 °C 81 % 1002,4 hPa 0,0 l/m² 0 min 0 min 0 W/m² 0,0 km/h (0 Bft) 100,00 %
24.01.2026 18:20 3,4 °C 1,1 °C -2,2 °C 81 % 1002,5 hPa 0,0 l/m² 0 min 0 min 0 W/m² 0,0 km/h (0 Bft) 97,22 %
24.01.2026 18:22 3,4 °C 1,1 °C -2,2 °C 81 % 1002,6 hPa 0,0 l/m² 0 min 0 min 0 W/m² 0,0 km/h (0 Bft) 100,00 %
24.01.2026 18:24 3,3 °C 1,1 °C -2,2 °C 81 % 1002,5 hPa 0,0 l/m² 0 min 0 min 0 W/m² 0,0 km/h (0 Bft) 100,00 %
24.01.2026 18:26 3,3 °C 1,1 °C -2,2 °C 81 % 1002,6 hPa 0,0 l/m² 0 min 0 min 0 W/m² 3,2 km/h (1 Bft) 100,00 %
24.01.2026 18:28 3,2 °C 1,1 °C -2,2 °C 81 % 1002,5 hPa 0,0 l/m² 0 min 0 min 0 W/m² 0,0 km/h (0 Bft) 98,18 %
24.01.2026 18:30 3,2 °C 1,1 °C -2,2 °C 81 % 1002,5 hPa 0,0 l/m² 0 min 0 min 0 W/m² 0,0 km/h (0 Bft) 97,30 %
24.01.2026 18:32 3,1 °C 1,1 °C -2,2 °C 81 % 1002,5 hPa 0,0 l/m² 0 min 0 min 0 W/m² 0,0 km/h (0 Bft) 100,00 %
24.01.2026 18:34 3,1 °C 1,1 °C -2,8 °C 82 % 1002,5 hPa 0,0 l/m² 0 min 0 min 0 W/m² 0,0 km/h (0 Bft) 98,18 %
24.01.2026 18:36 3,1 °C 1,1 °C -2,8 °C 82 % 1002,5 hPa 0,0 l/m² 0 min 0 min 0 W/m² 0,0 km/h (0 Bft) 100,00 %
24.01.2026 18:38 3,0 °C 0,6 °C -2,8 °C 82 % 1002,4 hPa 0,0 l/m² 0 min 0 min 0 W/m² 0,0 km/h (0 Bft) 100,00 %
24.01.2026 18:40 2,9 °C 0,6 °C -2,8 °C 82 % 1002,4 hPa 0,0 l/m² 0 min 0 min 0 W/m² 0,0 km/h (0 Bft) 100,00 %
24.01.2026 18:42 2,9 °C 0,6 °C -2,8 °C 82 % 1002,5 hPa 0,0 l/m² 0 min 0 min 0 W/m² 0,0 km/h (0 Bft) 100,00 %
24.01.2026 18:46 2,8 °C 0,6 °C -2,8 °C 82 % 1002,5 hPa 0,0 l/m² 0 min 0 min 0 W/m² 0,0 km/h (0 Bft) 96,94 %
24.01.2026 18:48 2,8 °C 0,6 °C -2,8 °C 82 % 1002,5 hPa 0,0 l/m² 0 min 0 min 0 W/m² 0,0 km/h (0 Bft) 97,80 %
24.01.2026 18:52 2,7 °C 0,6 °C -2,8 °C 82 % 1002,5 hPa 0,0 l/m² 0 min 0 min 0 W/m² 0,0 km/h (0 Bft) 98,00 %
24.01.2026 18:54 2,6 °C 0,6 °C -2,8 °C 82 % 1002,5 hPa 0,0 l/m² 0 min 0 min 0 W/m² 0,0 km/h (0 Bft) 96,00 %
24.01.2026 18:56 2,6 °C 0,6 °C -2,8 °C 82 % 1002,5 hPa 0,0 l/m² 0 min 0 min 0 W/m² 0,0 km/h (0 Bft) 97,14 %
24.01.2026 18:58 2,6 °C 0,6 °C -3,3 °C 82 % 1002,5 hPa 0,0 l/m² 0 min 0 min 0 W/m² 0,0 km/h (0 Bft) 96,23 %
24.01.2026 19:00 2,5 °C 0,6 °C -3,3 °C 82 % 1002,5 hPa 0,0 l/m² 0 min 0 min 0 W/m² 3,2 km/h (1 Bft) 94,23 %
24.01.2026 19:02 2,4 °C 0,6 °C -3,3 °C 83 % 1002,5 hPa 0,0 l/m² 0 min 0 min 0 W/m² 0,0 km/h (0 Bft) 97,14 %
24.01.2026 19:06 2,3 °C 0,6 °C -3,3 °C 83 % 1002,5 hPa 0,0 l/m² 0 min 0 min 0 W/m² 0,0 km/h (0 Bft) 93,88 %
24.01.2026 19:10 2,3 °C 0,6 °C -3,3 °C 83 % 1002,5 hPa 0,0 l/m² 0 min 0 min 0 W/m² 0,0 km/h (0 Bft) 76,70 %
24.01.2026 19:12 2,2 °C 0,6 °C -3,3 °C 83 % 1002,5 hPa 0,0 l/m² 0 min 0 min 0 W/m² 0,0 km/h (0 Bft) 94,59 %
24.01.2026 19:16 2,2 °C 0,0 °C -3,3 °C 83 % 1002,4 hPa 0,0 l/m² 0 min 0 min 0 W/m² 0,0 km/h (0 Bft) 96,12 %
24.01.2026 19:18 2,1 °C 0,0 °C -3,3 °C 83 % 1002,5 hPa 0,0 l/m² 0 min 0 min 0 W/m² 0,0 km/h (0 Bft) 94,74 %
24.01.2026 19:20 2,1 °C 0,0 °C -3,3 °C 83 % 1002,6 hPa 0,0 l/m² 0 min 0 min 0 W/m² 0,0 km/h (0 Bft) 93,62 %
24.01.2026 19:22 2,1 °C 0,6 °C -3,3 °C 84 % 1002,6 hPa 0,0 l/m² 0 min 0 min 0 W/m² 0,0 km/h (0 Bft) 94,44 %
24.01.2026 19:24 2,1 °C 0,6 °C -3,3 °C 84 % 1002,7 hPa 0,0 l/m² 0 min 0 min 0 W/m² 0,0 km/h (0 Bft) 97,44 %
24.01.2026 19:26 2,1 °C 0,6 °C -3,3 °C 85 % 1002,8 hPa 0,0 l/m² 0 min 0 min 0 W/m² 0,0 km/h (0 Bft) 91,49 %
24.01.2026 19:28 2,0 °C 0,6 °C -3,3 °C 85 % 1002,8 hPa 0,0 l/m² 0 min 0 min 0 W/m² 0,0 km/h (0 Bft) 91,49 %
24.01.2026 19:30 2,0 °C 0,6 °C -3,3 °C 85 % 1002,8 hPa 0,0 l/m² 0 min 0 min 0 W/m² 0,0 km/h (0 Bft) 91,49 %
24.01.2026 19:32 2,0 °C 0,6 °C -3,3 °C 85 % 1002,8 hPa 0,0 l/m² 0 min 0 min 0 W/m² 0,0 km/h (0 Bft) 95,65 %
24.01.2026 19:34 1,9 °C 0,6 °C -3,3 °C 85 % 1002,7 hPa 0,0 l/m² 0 min 0 min 0 W/m² 0,0 km/h (0 Bft) 95,74 %
24.01.2026 19:36 1,9 °C 0,6 °C -3,3 °C 85 % 1002,7 hPa 0,0 l/m² 0 min 0 min 0 W/m² 0,0 km/h (0 Bft) 93,75 %
24.01.2026 19:38 1,9 °C 0,6 °C -3,3 °C 86 % 1002,7 hPa 0,0 l/m² 0 min 0 min 0 W/m² 0,0 km/h (0 Bft) 95,65 %
24.01.2026 19:40 1,9 °C 0,6 °C -3,3 °C 86 % 1002,7 hPa 0,0 l/m² 0 min 0 min 0 W/m² 0,0 km/h (0 Bft) 95,74 %
24.01.2026 19:42 1,9 °C 0,6 °C -3,3 °C 86 % 1002,7 hPa 0,0 l/m² 0 min 0 min 0 W/m² 3,2 km/h (1 Bft) 92,00 %
24.01.2026 19:44 1,9 °C 0,6 °C -3,3 °C 86 % 1002,7 hPa 0,0 l/m² 0 min 0 min 0 W/m² 0,0 km/h (0 Bft) 95,92 %
24.01.2026 19:46 1,8 °C 0,6 °C -3,3 °C 86 % 1002,7 hPa 0,0 l/m² 0 min 0 min 0 W/m² 3,2 km/h (1 Bft) 91,49 %
24.01.2026 19:48 1,8 °C 0,6 °C -2,8 °C 86 % 1002,6 hPa 0,0 l/m² 0 min 0 min 0 W/m² 3,2 km/h (1 Bft) 93,62 %
24.01.2026 19:50 1,8 °C 0,6 °C -2,8 °C 87 % 1002,7 hPa 0,0 l/m² 0 min 0 min 0 W/m² 3,2 km/h (1 Bft) 97,14 %
24.01.2026 19:52 1,8 °C 0,6 °C -2,8 °C 87 % 1002,7 hPa 0,0 l/m² 0 min 0 min 0 W/m² 6,4 km/h (2 Bft) 98,31 %
24.01.2026 19:54 1,8 °C 0,6 °C -2,8 °C 87 % 1002,7 hPa 0,0 l/m² 0 min 0 min 0 W/m² 0,0 km/h (0 Bft) 20,00 %
24.01.2026 19:56 1,8 °C 0,6 °C -2,8 °C 87 % 1002,7 hPa 0,0 l/m² 0 min 0 min 0 W/m² 0,0 km/h (0 Bft) 98,11 %
24.01.2026 19:58 1,8 °C 0,6 °C -2,8 °C 87 % 1002,7 hPa 0,0 l/m² 0 min 0 min 0 W/m² 0,0 km/h (0 Bft) 100,00 %
24.01.2026 20:00 1,7 °C 0,6 °C -3,3 °C 87 % 1002,7 hPa 0,0 l/m² 0 min 0 min 0 W/m² 0,0 km/h (0 Bft) 100,00 %
24.01.2026 20:02 1,7 °C 0,6 °C -3,3 °C 87 % 1002,7 hPa 0,0 l/m² 0 min 0 min 0 W/m² 0,0 km/h (0 Bft) 100,00 %
24.01.2026 20:04 1,7 °C 0,0 °C -3,3 °C 88 % 1002,6 hPa 0,0 l/m² 0 min 0 min 0 W/m² 0,0 km/h (0 Bft) 100,00 %
24.01.2026 20:08 1,7 °C 0,0 °C -3,3 °C 88 % 1002,6 hPa 0,0 l/m² 0 min 0 min 0 W/m² 0,0 km/h (0 Bft) 100,00 %
24.01.2026 20:10 1,7 °C 0,0 °C -3,3 °C 88 % 1002,6 hPa 0,0 l/m² 0 min 0 min 0 W/m² 0,0 km/h (0 Bft) 97,87 %
24.01.2026 20:12 1,7 °C 0,0 °C -3,3 °C 88 % 1002,6 hPa 0,0 l/m² 0 min 0 min 0 W/m² 0,0 km/h (0 Bft) 100,00 %
24.01.2026 20:14 1,6 °C 0,0 °C -3,3 °C 88 % 1002,6 hPa 0,0 l/m² 0 min 0 min 0 W/m² 0,0 km/h (0 Bft) 100,00 %
24.01.2026 20:16 1,6 °C 0,0 °C -3,3 °C 88 % 1002,6 hPa 0,0 l/m² 0 min 0 min 0 W/m² 3,2 km/h (1 Bft) 97,56 %
24.01.2026 20:18 1,6 °C 0,0 °C -3,3 °C 88 % 1002,5 hPa 0,0 l/m² 0 min 0 min 0 W/m² 3,2 km/h (1 Bft) 96,36 %
24.01.2026 20:20 1,6 °C 0,0 °C -3,3 °C 88 % 1002,5 hPa 0,0 l/m² 0 min 0 min 0 W/m² 3,2 km/h (1 Bft) 100,00 %
24.01.2026 20:22 1,6 °C 0,0 °C -3,3 °C 88 % 1002,5 hPa 0,0 l/m² 0 min 0 min 0 W/m² 3,2 km/h (1 Bft) 98,21 %
24.01.2026 20:24 1,6 °C 0,0 °C -3,3 °C 88 % 1002,5 hPa 0,0 l/m² 0 min 0 min 0 W/m² 0,0 km/h (0 Bft) 100,00 %
24.01.2026 20:26 1,6 °C 0,0 °C -3,3 °C 89 % 1002,5 hPa 0,0 l/m² 0 min 0 min 0 W/m² 3,2 km/h (1 Bft) 97,87 %
24.01.2026 20:28 1,5 °C 0,0 °C -3,3 °C 89 % 1002,5 hPa 0,0 l/m² 0 min 0 min 0 W/m² 3,2 km/h (1 Bft) 100,00 %
24.01.2026 20:30 1,5 °C 0,0 °C -3,3 °C 89 % 1002,6 hPa 0,0 l/m² 0 min 0 min 0 W/m² 0,0 km/h (0 Bft) 100,00 %
24.01.2026 20:32 1,5 °C 0,0 °C -3,3 °C 89 % 1002,6 hPa 0,0 l/m² 0 min 0 min 0 W/m² 3,2 km/h (1 Bft) 97,67 %
24.01.2026 20:34 1,5 °C 0,0 °C -3,3 °C 89 % 1002,6 hPa 0,0 l/m² 0 min 0 min 0 W/m² 0,0 km/h (0 Bft) 100,00 %
24.01.2026 20:36 1,5 °C 0,0 °C -3,3 °C 89 % 1002,6 hPa 0,0 l/m² 0 min 0 min 0 W/m² 3,2 km/h (1 Bft) 91,49 %
24.01.2026 20:40 1,5 °C 0,0 °C -3,3 °C 90 % 1002,7 hPa 0,0 l/m² 0 min 0 min 0 W/m² 0,0 km/h (0 Bft) 79,12 %
24.01.2026 20:42 1,5 °C 0,0 °C -3,3 °C 90 % 1002,7 hPa 0,0 l/m² 0 min 0 min 0 W/m² 0,0 km/h (0 Bft) 97,87 %
24.01.2026 20:44 1,5 °C 0,0 °C -3,3 °C 90 % 1002,7 hPa 0,0 l/m² 0 min 0 min 0 W/m² 3,2 km/h (1 Bft) 100,00 %
24.01.2026 20:46 1,5 °C 0,0 °C -3,3 °C 90 % 1002,6 hPa 0,0 l/m² 0 min 0 min 0 W/m² 3,2 km/h (1 Bft) 100,00 %
24.01.2026 20:48 1,5 °C 0,0 °C -3,3 °C 91 % 1002,6 hPa 0,0 l/m² 0 min 0 min 0 W/m² 3,2 km/h (1 Bft) 100,00 %
24.01.2026 20:50 1,5 °C 0,0 °C -3,3 °C 91 % 1002,7 hPa 0,0 l/m² 0 min 0 min 0 W/m² 3,2 km/h (1 Bft) 97,73 %
24.01.2026 20:52 1,5 °C 0,0 °C -3,3 °C 91 % 1002,7 hPa 0,0 l/m² 0 min 0 min 0 W/m² 3,2 km/h (1 Bft) 96,00 %
24.01.2026 20:54 1,4 °C 0,0 °C -3,3 °C 91 % 1002,8 hPa 0,0 l/m² 0 min 0 min 0 W/m² 3,2 km/h (1 Bft) 96,30 %
24.01.2026 20:56 1,4 °C 0,0 °C -3,3 °C 91 % 1002,8 hPa 0,0 l/m² 0 min 0 min 0 W/m² 3,2 km/h (1 Bft) 97,44 %
24.01.2026 20:58 1,4 °C 0,0 °C -3,3 °C 91 % 1002,8 hPa 0,0 l/m² 0 min 0 min 0 W/m² 6,4 km/h (2 Bft) 98,00 %
24.01.2026 21:00 1,4 °C 0,0 °C -3,3 °C 91 % 1002,7 hPa 0,0 l/m² 0 min 0 min 0 W/m² 6,4 km/h (2 Bft) 97,14 %
24.01.2026 21:02 1,4 °C 0,0 °C -3,3 °C 91 % 1002,7 hPa 0,0 l/m² 0 min 0 min 0 W/m² 3,2 km/h (1 Bft) 98,18 %
24.01.2026 21:04 1,4 °C 0,0 °C -3,3 °C 91 % 1002,8 hPa 0,0 l/m² 0 min 0 min 0 W/m² 0,0 km/h (0 Bft) 97,96 %
24.01.2026 21:08 1,4 °C 0,0 °C -3,3 °C 92 % 1002,8 hPa 0,0 l/m² 0 min 0 min 0 W/m² 3,2 km/h (1 Bft) 96,74 %
24.01.2026 21:10 1,4 °C 0,0 °C -3,3 °C 92 % 1002,8 hPa 0,0 l/m² 0 min 0 min 0 W/m² 3,2 km/h (1 Bft) 94,87 %
24.01.2026 21:12 1,3 °C 0,0 °C -3,3 °C 92 % 1002,9 hPa 0,0 l/m² 0 min 0 min 0 W/m² 0,0 km/h (0 Bft) 93,22 %
24.01.2026 21:14 1,3 °C 0,0 °C -3,3 °C 92 % 1002,9 hPa 0,0 l/m² 0 min 0 min 0 W/m² 0,0 km/h (0 Bft) 95,74 %
24.01.2026 21:16 1,3 °C 0,0 °C -3,3 °C 92 % 1002,9 hPa 0,0 l/m² 0 min 0 min 0 W/m² 0,0 km/h (0 Bft) 95,74 %
24.01.2026 21:18 1,3 °C 0,0 °C -3,3 °C 92 % 1003,0 hPa 0,0 l/m² 0 min 0 min 0 W/m² 0,0 km/h (0 Bft) 95,56 %
24.01.2026 21:20 1,3 °C 0,0 °C -3,3 °C 92 % 1003,0 hPa 0,0 l/m² 0 min 0 min 0 W/m² 0,0 km/h (0 Bft) 93,62 %
24.01.2026 21:22 1,2 °C 0,0 °C -3,3 °C 92 % 1003,0 hPa 0,0 l/m² 0 min 0 min 0 W/m² 0,0 km/h (0 Bft) 96,00 %
24.01.2026 21:24 1,2 °C 0,0 °C -3,9 °C 92 % 1003,0 hPa 0,0 l/m² 0 min 0 min 0 W/m² 0,0 km/h (0 Bft) 97,92 %
24.01.2026 21:26 1,2 °C -0,6 °C -3,9 °C 92 % 1003,0 hPa 0,0 l/m² 0 min 0 min 0 W/m² 0,0 km/h (0 Bft) 97,37 %
24.01.2026 21:28 1,2 °C -0,6 °C -3,9 °C 92 % 1003,0 hPa 0,0 l/m² 0 min 0 min 0 W/m² 0,0 km/h (0 Bft) 97,87 %
24.01.2026 21:30 1,2 °C -0,6 °C -3,9 °C 92 % 1003,0 hPa 0,0 l/m² 0 min 0 min 0 W/m² 0,0 km/h (0 Bft) 97,83 %
24.01.2026 21:32 1,1 °C -0,6 °C -3,9 °C 92 % 1003,0 hPa 0,0 l/m² 0 min 0 min 0 W/m² 0,0 km/h (0 Bft) 95,65 %
24.01.2026 21:34 1,1 °C -0,6 °C -3,9 °C 92 % 1003,0 hPa 0,0 l/m² 0 min 0 min 0 W/m² 0,0 km/h (0 Bft) 97,92 %
24.01.2026 21:36 1,1 °C -0,6 °C -3,9 °C 92 % 1003,0 hPa 0,0 l/m² 0 min 0 min 0 W/m² 0,0 km/h (0 Bft) 100,00 %
24.01.2026 21:38 1,1 °C -0,6 °C -3,9 °C 92 % 1003,0 hPa 0,0 l/m² 0 min 0 min 0 W/m² 0,0 km/h (0 Bft) 100,00 %
24.01.2026 21:40 1,1 °C -0,6 °C -3,9 °C 92 % 1003,0 hPa 0,0 l/m² 0 min 0 min 0 W/m² 3,2 km/h (1 Bft) 100,00 %
24.01.2026 21:42 1,0 °C -0,6 °C -3,9 °C 92 % 1003,0 hPa 0,0 l/m² 0 min 0 min 0 W/m² 3,2 km/h (1 Bft) 97,67 %
24.01.2026 21:44 0,9 °C -0,6 °C -3,9 °C 92 % 1003,0 hPa 0,0 l/m² 0 min 0 min 0 W/m² 3,2 km/h (1 Bft) 97,92 %
24.01.2026 21:46 0,9 °C -0,6 °C -3,9 °C 92 % 1003,0 hPa 0,0 l/m² 0 min 0 min 0 W/m² 3,2 km/h (1 Bft) 100,00 %
24.01.2026 21:48 0,9 °C -0,6 °C -3,9 °C 92 % 1003,0 hPa 0,0 l/m² 0 min 0 min 0 W/m² 3,2 km/h (1 Bft) 100,00 %
24.01.2026 21:50 0,9 °C -0,6 °C -3,9 °C 92 % 1003,0 hPa 0,0 l/m² 0 min 0 min 0 W/m² 3,2 km/h (1 Bft) 97,96 %
24.01.2026 21:52 0,9 °C 0,0 °C -3,3 °C 92 % 1003,1 hPa 0,0 l/m² 0 min 0 min 0 W/m² 3,2 km/h (1 Bft) 100,00 %
24.01.2026 21:54 0,9 °C 0,0 °C -3,3 °C 92 % 1003,1 hPa 0,0 l/m² 0 min 0 min 0 W/m² 6,4 km/h (2 Bft) 100,00 %
24.01.2026 21:56 0,9 °C 0,0 °C -3,3 °C 92 % 1003,0 hPa 0,0 l/m² 0 min 0 min 0 W/m² 9,7 km/h (2 Bft) 97,87 %
24.01.2026 21:58 0,9 °C 0,6 °C -3,3 °C 92 % 1003,1 hPa 0,0 l/m² 0 min 0 min 0 W/m² 12,9 km/h (3 Bft) 100,00 %
24.01.2026 22:00 0,8 °C 0,6 °C -3,3 °C 92 % 1003,0 hPa 0,0 l/m² 0 min 0 min 0 W/m² 6,4 km/h (2 Bft) 100,00 %
24.01.2026 22:02 0,9 °C 0,6 °C -2,8 °C 92 % 1003,0 hPa 0,0 l/m² 0 min 0 min 0 W/m² 16,1 km/h (3 Bft) 97,87 %
24.01.2026 22:04 0,9 °C 0,6 °C -2,8 °C 92 % 1003,0 hPa 0,0 l/m² 0 min 0 min 0 W/m² 6,4 km/h (2 Bft) 100,00 %
24.01.2026 22:08 0,9 °C 0,6 °C -2,8 °C 92 % 1002,9 hPa 0,0 l/m² 0 min 0 min 0 W/m² 6,4 km/h (2 Bft) 96,51 %
24.01.2026 22:10 0,9 °C 0,6 °C -2,8 °C 92 % 1002,9 hPa 0,0 l/m² 0 min 0 min 0 W/m² 3,2 km/h (1 Bft) 97,87 %
24.01.2026 22:12 0,9 °C 0,6 °C -2,8 °C 92 % 1002,9 hPa 0,0 l/m² 0 min 0 min 0 W/m² 3,2 km/h (1 Bft) 100,00 %
24.01.2026 22:14 0,9 °C 0,6 °C -2,8 °C 92 % 1002,9 hPa 0,0 l/m² 0 min 0 min 0 W/m² 3,2 km/h (1 Bft) 95,74 %
24.01.2026 22:16 0,9 °C 0,6 °C -2,8 °C 92 % 1002,9 hPa 0,0 l/m² 0 min 0 min 0 W/m² 3,2 km/h (1 Bft) 97,87 %
24.01.2026 22:18 0,9 °C 0,6 °C -2,8 °C 92 % 1002,8 hPa 0,0 l/m² 0 min 0 min 0 W/m² 6,4 km/h (2 Bft) 94,74 %
24.01.2026 22:20 0,9 °C 0,6 °C -2,8 °C 92 % 1002,8 hPa 0,0 l/m² 0 min 0 min 0 W/m² 6,4 km/h (2 Bft) 97,83 %
24.01.2026 22:22 0,9 °C 0,6 °C -2,8 °C 92 % 1002,8 hPa 0,0 l/m² 0 min 0 min 0 W/m² 6,4 km/h (2 Bft) 97,73 %
24.01.2026 22:24 0,9 °C 0,6 °C -2,8 °C 92 % 1002,7 hPa 0,0 l/m² 0 min 0 min 0 W/m² 9,7 km/h (2 Bft) 97,50 %
24.01.2026 22:26 0,9 °C 0,6 °C -2,8 °C 92 % 1002,8 hPa 0,0 l/m² 0 min 0 min 0 W/m² 6,4 km/h (2 Bft) 97,87 %
24.01.2026 22:28 0,9 °C 0,6 °C -2,8 °C 92 % 1002,8 hPa 0,0 l/m² 0 min 0 min 0 W/m² 6,4 km/h (2 Bft) 97,87 %
24.01.2026 22:30 1,0 °C 0,6 °C -2,8 °C 92 % 1002,7 hPa 0,0 l/m² 0 min 0 min 0 W/m² 12,9 km/h (3 Bft) 98,21 %
24.01.2026 22:32 1,0 °C 0,6 °C -2,8 °C 92 % 1002,7 hPa 0,0 l/m² 0 min 0 min 0 W/m² 6,4 km/h (2 Bft) 95,45 %
24.01.2026 22:34 1,0 °C 0,6 °C -2,8 °C 92 % 1002,7 hPa 0,0 l/m² 0 min 0 min 0 W/m² 12,9 km/h (3 Bft) 97,50 %
24.01.2026 22:36 1,1 °C 0,6 °C -2,8 °C 92 % 1002,6 hPa 0,0 l/m² 0 min 0 min 0 W/m² 9,7 km/h (2 Bft) 95,74 %
24.01.2026 22:38 1,1 °C 1,1 °C -2,8 °C 91 % 1002,6 hPa 0,0 l/m² 0 min 0 min 0 W/m² 9,7 km/h (2 Bft) 97,83 %
24.01.2026 22:40 1,1 °C 1,1 °C -2,8 °C 91 % 1002,6 hPa 0,0 l/m² 0 min 0 min 0 W/m² 12,9 km/h (3 Bft) 96,43 %
24.01.2026 22:42 1,2 °C 1,1 °C -2,8 °C 91 % 1002,6 hPa 0,0 l/m² 0 min 0 min 0 W/m² 12,9 km/h (3 Bft) 97,83 %
24.01.2026 22:44 1,2 °C 1,1 °C -2,8 °C 91 % 1002,6 hPa 0,0 l/m² 0 min 0 min 0 W/m² 12,9 km/h (3 Bft) 95,65 %
24.01.2026 22:46 1,2 °C 1,1 °C -2,8 °C 90 % 1002,5 hPa 0,0 l/m² 0 min 0 min 0 W/m² 12,9 km/h (3 Bft) 92,50 %
24.01.2026 22:48 1,3 °C 1,1 °C -2,8 °C 90 % 1002,5 hPa 0,0 l/m² 0 min 0 min 0 W/m² 6,4 km/h (2 Bft) 93,62 %
24.01.2026 22:50 1,3 °C 1,1 °C -2,8 °C 90 % 1002,5 hPa 0,0 l/m² 0 min 0 min 0 W/m² 12,9 km/h (3 Bft) 93,62 %
24.01.2026 22:52 1,3 °C 1,1 °C -2,8 °C 89 % 1002,5 hPa 0,0 l/m² 0 min 0 min 0 W/m² 12,9 km/h (3 Bft) 93,62 %
24.01.2026 22:54 1,3 °C 1,1 °C -2,8 °C 89 % 1002,5 hPa 0,0 l/m² 0 min 0 min 0 W/m² 9,7 km/h (2 Bft) 91,30 %
24.01.2026 22:56 1,4 °C 1,1 °C -2,8 °C 89 % 1002,5 hPa 0,0 l/m² 0 min 0 min 0 W/m² 12,9 km/h (3 Bft) 91,49 %
24.01.2026 22:58 1,4 °C 1,1 °C -2,8 °C 88 % 1002,3 hPa 0,0 l/m² 0 min 0 min 0 W/m² 12,9 km/h (3 Bft) 93,62 %
24.01.2026 23:00 1,4 °C 1,1 °C -2,8 °C 88 % 1002,4 hPa 0,0 l/m² 0 min 0 min 0 W/m² 6,4 km/h (2 Bft) 89,36 %
24.01.2026 23:02 1,4 °C 1,1 °C -2,8 °C 88 % 1002,3 hPa 0,0 l/m² 0 min 0 min 0 W/m² 12,9 km/h (3 Bft) 95,65 %
24.01.2026 23:04 1,4 °C 1,1 °C -2,8 °C 88 % 1002,3 hPa 0,0 l/m² 0 min 0 min 0 W/m² 16,1 km/h (3 Bft) 92,86 %
24.01.2026 23:07 1,4 °C 1,1 °C -2,8 °C 87 % 1002,3 hPa 0,0 l/m² 0 min 0 min 0 W/m² 19,3 km/h (3 Bft) 92,75 %
24.01.2026 23:08 1,4 °C 1,1 °C -2,8 °C 87 % 1002,3 hPa 0,0 l/m² 0 min 0 min 0 W/m² 9,7 km/h (2 Bft) 100,00 %
24.01.2026 23:12 1,4 °C 1,1 °C -2,8 °C 87 % 1002,3 hPa 0,0 l/m² 0 min 0 min 0 W/m² 12,9 km/h (3 Bft) 94,87 %
24.01.2026 23:14 1,4 °C 1,1 °C -2,8 °C 87 % 1002,3 hPa 0,0 l/m² 0 min 0 min 0 W/m² 16,1 km/h (3 Bft) 95,74 %
24.01.2026 23:16 1,4 °C 1,1 °C -2,8 °C 87 % 1002,2 hPa 0,0 l/m² 0 min 0 min 0 W/m² 6,4 km/h (2 Bft) 95,65 %
24.01.2026 23:18 1,4 °C 0,6 °C -2,8 °C 86 % 1002,2 hPa 0,0 l/m² 0 min 0 min 0 W/m² 9,7 km/h (2 Bft) 95,74 %
24.01.2026 23:20 1,4 °C 0,6 °C -2,8 °C 86 % 1002,2 hPa 0,0 l/m² 0 min 0 min 0 W/m² 16,1 km/h (3 Bft) 95,74 %
24.01.2026 23:22 1,4 °C 0,6 °C -2,8 °C 86 % 1002,2 hPa 0,0 l/m² 0 min 0 min 0 W/m² 9,7 km/h (2 Bft) 95,74 %
24.01.2026 23:24 1,4 °C 0,6 °C -2,8 °C 86 % 1002,1 hPa 0,0 l/m² 0 min 0 min 0 W/m² 6,4 km/h (2 Bft) 98,15 %
24.01.2026 23:26 1,4 °C 0,6 °C -2,8 °C 86 % 1002,1 hPa 0,0 l/m² 0 min 0 min 0 W/m² 12,9 km/h (3 Bft) 100,00 %
24.01.2026 23:28 1,4 °C 0,6 °C -2,8 °C 85 % 1002,1 hPa 0,0 l/m² 0 min 0 min 0 W/m² 12,9 km/h (3 Bft) 100,00 %
24.01.2026 23:30 1,4 °C 0,6 °C -2,8 °C 85 % 1002,2 hPa 0,0 l/m² 0 min 0 min 0 W/m² 6,4 km/h (2 Bft) 100,00 %
24.01.2026 23:32 1,4 °C 0,6 °C -2,8 °C 85 % 1002,2 hPa 0,0 l/m² 0 min 0 min 0 W/m² 6,4 km/h (2 Bft) 97,83 %
24.01.2026 23:34 1,4 °C 0,6 °C -2,8 °C 85 % 1002,2 hPa 0,0 l/m² 0 min 0 min 0 W/m² 9,7 km/h (2 Bft) 98,18 %
24.01.2026 23:36 1,4 °C 0,6 °C -2,8 °C 85 % 1002,2 hPa 0,0 l/m² 0 min 0 min 0 W/m² 12,9 km/h (3 Bft) 100,00 %
24.01.2026 23:38 1,4 °C 0,6 °C -2,8 °C 85 % 1002,2 hPa 0,0 l/m² 0 min 0 min 0 W/m² 16,1 km/h (3 Bft) 100,00 %
24.01.2026 23:40 1,4 °C 0,6 °C -2,8 °C 84 % 1002,2 hPa 0,0 l/m² 0 min 0 min 0 W/m² 22,5 km/h (4 Bft) 97,92 %
24.01.2026 23:42 1,4 °C 0,6 °C -2,8 °C 85 % 1002,2 hPa 0,0 l/m² 0 min 0 min 0 W/m² 12,9 km/h (3 Bft) 100,00 %
24.01.2026 23:44 1,4 °C 0,6 °C -2,8 °C 84 % 1002,2 hPa 0,0 l/m² 0 min 0 min 0 W/m² 12,9 km/h (3 Bft) 100,00 %
24.01.2026 23:46 1,4 °C 0,6 °C -2,8 °C 84 % 1002,1 hPa 0,0 l/m² 0 min 0 min 0 W/m² 12,9 km/h (3 Bft) 100,00 %
24.01.2026 23:48 1,4 °C 0,6 °C -2,8 °C 84 % 1002,1 hPa 0,0 l/m² 0 min 0 min 0 W/m² 6,4 km/h (2 Bft) 100,00 %
24.01.2026 23:50 1,4 °C 0,6 °C -2,8 °C 84 % 1002,1 hPa 0,0 l/m² 0 min 0 min 0 W/m² 6,4 km/h (2 Bft) 100,00 %
24.01.2026 23:52 1,3 °C 0,6 °C -2,8 °C 84 % 1002,1 hPa 0,0 l/m² 0 min 0 min 0 W/m² 6,4 km/h (2 Bft) 97,83 %
24.01.2026 23:54 1,3 °C 0,6 °C -2,8 °C 84 % 1002,1 hPa 0,0 l/m² 0 min 0 min 0 W/m² 6,4 km/h (2 Bft) 100,00 %
24.01.2026 23:56 1,3 °C 0,6 °C -2,8 °C 84 % 1002,1 hPa 0,0 l/m² 0 min 0 min 0 W/m² 6,4 km/h (2 Bft) 98,04 %
24.01.2026 23:58 1,3 °C 0,6 °C -2,8 °C 84 % 1002,0 hPa 0,0 l/m² 0 min 0 min 0 W/m² 12,9 km/h (3 Bft) 97,87 %
_ Min-Zeit 22:00 21:26 21:24 00:00 00:02 - - - - 17:56 19:54
Minimum _ 0,8 °C -0,6 °C -3,9 °C 73 % 998,4 hPa - - - - 0,0 km/h (0 Bft) 20,00 %
_ Max-Zeit 14:08 13:30 13:18 09:30 21:52 03:36 10:30 03:06 12:42 00:18 00:00
Maximum _ 8,5 °C 15,6 °C 2,2 °C 93 % 1003,1 hPa 0,2 l/m² 5 min 2 min 331 W/m² 25,7 km/h
SO (4 Bft)
100,00 %
Durchschnitt _ 3,9 °C 4,1 °C -1,0 °C 84 % 1001,6 hPa #0,5 l/m² #4:12 h #32 min. 161 W/m² 11,4 km/h (2 Bft) 97,13 %
© 2026 W. Hausmann